Time,TemperatureF,DewpointF,PressureIn,WindDirection,WindDirectionDegrees,WindSpeedMPH,WindSpeedGustMPH,Humidity,HourlyPrecipIn,Conditions,Clouds,dailyrainin,SoftwareType,DateUTC
2013-04-15 00:01:00,48.0,44.9,29.89,West,276,4.0,9.0,89,0.00,,,0.00,Wunderground v.1.15,2013-04-15 07:01:00,
2013-04-15 00:03:00,48.0,44.9,29.89,WNW,286,2.0,9.0,89,0.00,,,0.00,Wunderground v.1.15,2013-04-15 07:03:00,
2013-04-15 00:41:00,47.6,44.8,29.89,West,260,9.0,11.0,90,0.00,,,0.00,Wunderground v.1.15,2013-04-15 07:41:00,
2013-04-15 00:42:00,47.6,44.8,29.89,WSW,238,6.0,11.0,90,0.00,,,0.00,Wunderground v.1.15,2013-04-15 07:42:00,
2013-04-15 00:46:00,47.4,44.9,29.89,North,359,4.0,11.0,91,0.00,,,0.00,Wunderground v.1.15,2013-04-15 07:46:00,
2013-04-15 00:47:00,47.3,44.8,29.89,West,266,5.0,11.0,91,0.00,,,0.00,Wunderground v.1.15,2013-04-15 07:47:00,
2013-04-15 00:48:00,47.3,44.8,29.89,West,272,5.0,11.0,91,0.00,,,0.00,Wunderground v.1.15,2013-04-15 07:48:00,
2013-04-15 00:50:00,47.2,44.7,29.90,WSW,256,6.0,6.0,91,0.00,,,0.00,Wunderground v.1.15,2013-04-15 07:50:00,
2013-04-15 00:51:00,47.2,44.7,29.90,West,270,10.0,10.0,91,0.00,,,0.00,Wunderground v.1.15,2013-04-15 07:51:00,
2013-04-15 00:54:00,47.2,44.7,29.90,North,359,6.0,10.0,91,0.00,,,0.00,Wunderground v.1.15,2013-04-15 07:54:00,
2013-04-15 00:55:00,47.1,44.6,29.90,North,359,8.0,10.0,91,0.00,,,0.00,Wunderground v.1.15,2013-04-15 07:55:00,
2013-04-15 00:56:00,47.1,44.6,29.90,North,359,2.0,10.0,91,0.00,,,0.00,Wunderground v.1.15,2013-04-15 07:56:00,
2013-04-15 00:57:00,47.1,44.6,29.90,West,272,10.0,10.0,91,0.00,,,0.00,Wunderground v.1.15,2013-04-15 07:57:00,
2013-04-15 01:02:00,47.0,44.8,29.90,West,270,5.0,8.0,92,0.00,,,0.00,Wunderground v.1.15,2013-04-15 08:02:00,
2013-04-15 01:03:00,47.0,44.8,29.89,North,359,7.0,8.0,92,0.00,,,0.00,Wunderground v.1.15,2013-04-15 08:03:00,
2013-04-15 01:07:00,47.0,44.8,29.90,West,259,9.0,9.0,92,0.00,,,0.00,Wunderground v.1.15,2013-04-15 08:07:00,
2013-04-15 01:08:00,47.0,44.8,29.90,West,266,5.0,9.0,92,0.00,,,0.00,Wunderground v.1.15,2013-04-15 08:08:00,
2013-04-15 01:09:00,47.0,44.8,29.90,North,359,6.0,9.0,92,0.00,,,0.00,Wunderground v.1.15,2013-04-15 08:09:00,
2013-04-15 01:13:00,46.9,44.7,29.90,West,270,7.0,8.0,92,0.00,,,0.00,Wunderground v.1.15,2013-04-15 08:13:00,
2013-04-15 01:14:00,46.9,44.7,29.89,West,265,11.0,11.0,92,0.00,,,0.00,Wunderground v.1.15,2013-04-15 08:14:00,
2013-04-15 01:15:00,46.9,44.7,29.90,West,272,5.0,11.0,92,0.00,,,0.00,Wunderground v.1.15,2013-04-15 08:15:00,
2013-04-15 01:19:00,46.9,44.7,29.89,West,273,2.0,11.0,92,0.00,,,0.00,Wunderground v.1.15,2013-04-15 08:19:00,
2013-04-15 01:21:00,46.9,44.7,29.89,West,270,6.0,7.0,92,0.00,,,0.00,Wunderground v.1.15,2013-04-15 08:21:00,
2013-04-15 01:22:00,46.8,44.6,29.89,West,272,7.0,7.0,92,0.00,,,0.00,Wunderground v.1.15,2013-04-15 08:22:00,
2013-04-15 01:25:00,46.8,44.6,29.89,North,359,6.0,12.0,92,0.00,,,0.00,Wunderground v.1.15,2013-04-15 08:25:00,
2013-04-15 01:28:00,46.8,44.6,29.89,WNW,283,7.0,12.0,92,0.00,,,0.00,Wunderground v.1.15,2013-04-15 08:28:00,
2013-04-15 01:29:00,46.8,44.6,29.89,West,280,6.0,12.0,92,0.00,,,0.00,Wunderground v.1.15,2013-04-15 08:29:00,
2013-04-15 01:32:00,46.7,44.5,29.89,WNW,283,6.0,8.0,92,0.00,,,0.00,Wunderground v.1.15,2013-04-15 08:32:00,
2013-04-15 01:35:00,46.7,44.5,29.89,West,274,10.0,10.0,92,0.00,,,0.00,Wunderground v.1.15,2013-04-15 08:35:00,
2013-04-15 01:37:00,46.7,44.5,29.89,WNW,285,3.0,10.0,92,0.00,,,0.00,Wunderground v.1.15,2013-04-15 08:37:00,
2013-04-15 01:40:00,46.7,44.5,29.89,West,268,5.0,6.0,92,0.00,,,0.00,Wunderground v.1.15,2013-04-15 08:40:00,
2013-04-15 01:42:00,46.7,44.5,29.89,West,269,6.0,6.0,92,0.00,,,0.00,Wunderground v.1.15,2013-04-15 08:42:00,
2013-04-15 01:44:00,46.7,44.5,29.89,West,276,10.0,10.0,92,0.00,,,0.00,Wunderground v.1.15,2013-04-15 08:44:00,
2013-04-15 01:50:00,46.7,44.5,29.89,WNW,300,8.0,8.0,92,0.00,,,0.00,Wunderground v.1.15,2013-04-15 08:50:00,
2013-04-15 01:51:00,46.7,44.5,29.89,North,359,5.0,8.0,92,0.00,,,0.00,Wunderground v.1.15,2013-04-15 08:51:00,
2013-04-15 01:52:00,46.7,44.5,29.89,West,265,2.0,8.0,92,0.00,,,0.00,Wunderground v.1.15,2013-04-15 08:52:00,
2013-04-15 01:55:00,46.7,44.2,29.89,West,265,3.0,8.0,91,0.00,,,0.00,Wunderground v.1.15,2013-04-15 08:55:00,
2013-04-15 01:56:00,46.7,44.2,29.89,North,359,4.0,8.0,91,0.00,,,0.00,Wunderground v.1.15,2013-04-15 08:56:00,
2013-04-15 01:57:00,46.6,44.1,29.89,West,270,4.0,8.0,91,0.00,,,0.00,Wunderground v.1.15,2013-04-15 08:57:00,
2013-04-15 01:58:00,46.6,44.1,29.89,North,359,6.0,8.0,91,0.00,,,0.00,Wunderground v.1.15,2013-04-15 08:58:00,
2013-04-15 02:01:00,46.6,44.1,29.89,West,276,0.0,5.0,91,0.00,,,0.00,Wunderground v.1.15,2013-04-15 09:01:00,
2013-04-15 02:02:00,46.7,44.2,29.89,West,276,4.0,5.0,91,0.00,,,0.00,Wunderground v.1.15,2013-04-15 09:02:00,
2013-04-15 02:03:00,46.6,44.1,29.89,North,359,5.0,6.0,91,0.00,,,0.00,Wunderground v.1.15,2013-04-15 09:03:00,
2013-04-15 02:06:00,46.5,44.0,29.88,North,359,8.0,9.0,91,0.00,,,0.00,Wunderground v.1.15,2013-04-15 09:06:00,
2013-04-15 02:07:00,46.5,44.0,29.88,North,359,6.0,9.0,91,0.00,,,0.00,Wunderground v.1.15,2013-04-15 09:07:00,
2013-04-15 02:08:00,46.5,44.0,29.88,WNW,283,4.0,9.0,91,0.00,,,0.00,Wunderground v.1.15,2013-04-15 09:08:00,
2013-04-15 02:12:00,46.6,44.1,29.89,West,278,3.0,7.0,91,0.00,,,0.00,Wunderground v.1.15,2013-04-15 09:12:00,
2013-04-15 02:13:00,46.6,44.1,29.89,West,278,4.0,7.0,91,0.00,,,0.00,Wunderground v.1.15,2013-04-15 09:13:00,
2013-04-15 02:17:00,46.6,44.1,29.89,WNW,291,5.0,7.0,91,0.00,,,0.00,Wunderground v.1.15,2013-04-15 09:17:00,
2013-04-15 02:18:00,46.6,44.1,29.89,West,275,1.0,7.0,91,0.00,,,0.00,Wunderground v.1.15,2013-04-15 09:18:00,
2013-04-15 02:23:00,46.6,44.1,29.89,North,359,3.0,6.0,91,0.00,,,0.00,Wunderground v.1.15,2013-04-15 09:23:00,
2013-04-15 02:28:00,46.6,43.8,29.89,North,359,3.0,7.0,90,0.00,,,0.00,Wunderground v.1.15,2013-04-15 09:28:00,
2013-04-15 02:33:00,46.6,43.8,29.89,West,272,3.0,7.0,90,0.00,,,0.00,Wunderground v.1.15,2013-04-15 09:33:00,
2013-04-15 02:34:00,46.6,43.8,29.89,West,273,3.0,7.0,90,0.00,,,0.00,Wunderground v.1.15,2013-04-15 09:34:00,
2013-04-15 02:38:00,46.5,43.7,29.89,West,272,0.0,7.0,90,0.00,,,0.00,Wunderground v.1.15,2013-04-15 09:38:00,
2013-04-15 02:39:00,46.5,43.7,29.89,North,359,0.0,7.0,90,0.00,,,0.00,Wunderground v.1.15,2013-04-15 09:39:00,
2013-04-15 02:43:00,46.4,43.6,29.89,West,272,0.0,2.0,90,0.00,,,0.00,Wunderground v.1.15,2013-04-15 09:43:00,
2013-04-15 02:44:00,46.4,43.6,29.89,West,273,0.0,2.0,90,0.00,,,0.00,Wunderground v.1.15,2013-04-15 09:44:00,
2013-04-15 02:48:00,46.4,43.6,29.89,West,272,0.0,2.0,90,0.00,,,0.00,Wunderground v.1.15,2013-04-15 09:48:00,
2013-04-15 02:49:00,46.4,43.6,29.89,North,359,0.0,2.0,90,0.00,,,0.00,Wunderground v.1.15,2013-04-15 09:49:00,
2013-04-15 02:54:00,46.4,43.6,29.89,West,274,0.0,0.0,90,0.00,,,0.00,Wunderground v.1.15,2013-04-15 09:54:00,
2013-04-15 02:59:00,46.4,43.6,29.89,West,273,1.0,2.0,90,0.00,,,0.00,Wunderground v.1.15,2013-04-15 09:59:00,
2013-04-15 03:00:00,46.4,43.6,29.89,West,274,0.0,0.0,90,0.00,,,0.00,Wunderground v.1.15,2013-04-15 10:00:00,
2013-04-15 03:04:00,46.5,43.7,29.89,West,273,0.0,1.0,90,0.00,,,0.00,Wunderground v.1.15,2013-04-15 10:04:00,
2013-04-15 03:05:00,46.5,43.7,29.89,West,273,1.0,1.0,90,0.00,,,0.00,Wunderground v.1.15,2013-04-15 10:05:00,
2013-04-15 03:09:00,46.5,43.7,29.88,West,273,0.0,3.0,90,0.00,,,0.00,Wunderground v.1.15,2013-04-15 10:09:00,
2013-04-15 03:10:00,46.5,43.7,29.88,West,274,0.0,0.0,90,0.00,,,0.00,Wunderground v.1.15,2013-04-15 10:10:00,
2013-04-15 03:14:00,46.5,43.7,29.88,West,273,2.0,2.0,90,0.00,,,0.00,Wunderground v.1.15,2013-04-15 10:14:00,
2013-04-15 03:15:00,46.3,43.5,29.88,North,359,3.0,3.0,90,0.00,,,0.00,Wunderground v.1.15,2013-04-15 10:15:00,
2013-04-15 03:19:00,46.0,43.2,29.88,West,274,0.0,3.0,90,0.00,,,0.00,Wunderground v.1.15,2013-04-15 10:19:00,
2013-04-15 03:20:00,46.0,43.2,29.88,West,274,0.0,1.0,90,0.00,,,0.00,Wunderground v.1.15,2013-04-15 10:20:00,
2013-04-15 03:24:00,45.8,43.0,29.89,West,273,0.0,1.0,90,0.00,,,0.00,Wunderground v.1.15,2013-04-15 10:24:00,
2013-04-15 03:25:00,45.8,43.0,29.89,West,273,0.0,1.0,90,0.00,,,0.00,Wunderground v.1.15,2013-04-15 10:25:00,
2013-04-15 03:29:00,45.7,42.9,29.89,West,272,1.0,3.0,90,0.00,,,0.00,Wunderground v.1.15,2013-04-15 10:29:00,
2013-04-15 03:30:00,45.7,42.9,29.89,North,359,2.0,2.0,90,0.00,,,0.00,Wunderground v.1.15,2013-04-15 10:30:00,
2013-04-15 03:34:00,45.6,42.8,29.89,WSW,253,2.0,6.0,90,0.00,,,0.00,Wunderground v.1.15,2013-04-15 10:34:00,
2013-04-15 03:35:00,45.6,42.8,29.89,WSW,253,1.0,6.0,90,0.00,,,0.00,Wunderground v.1.15,2013-04-15 10:35:00,
2013-04-15 03:36:00,45.6,42.8,29.89,WSW,253,1.0,6.0,90,0.00,,,0.00,Wunderground v.1.15,2013-04-15 10:36:00,
2013-04-15 03:39:00,45.5,42.7,29.89,WSW,253,1.0,6.0,90,0.00,,,0.00,Wunderground v.1.15,2013-04-15 10:39:00,
2013-04-15 03:40:00,45.5,42.7,29.89,WSW,252,4.0,4.0,90,0.00,,,0.00,Wunderground v.1.15,2013-04-15 10:40:00,
2013-04-15 03:41:00,45.5,42.7,29.89,WSW,253,1.0,4.0,90,0.00,,,0.00,Wunderground v.1.15,2013-04-15 10:41:00,
2013-04-15 03:42:00,45.5,42.7,29.89,North,359,2.0,4.0,90,0.00,,,0.00,Wunderground v.1.15,2013-04-15 10:42:00,
2013-04-15 03:45:00,45.4,42.6,29.89,WSW,253,3.0,4.0,90,0.00,,,0.00,Wunderground v.1.15,2013-04-15 10:45:00,
2013-04-15 03:46:00,45.4,42.6,29.89,WSW,253,2.0,4.0,90,0.00,,,0.00,Wunderground v.1.15,2013-04-15 10:46:00,
2013-04-15 03:47:00,45.4,42.6,29.89,North,359,1.0,4.0,90,0.00,,,0.00,Wunderground v.1.15,2013-04-15 10:47:00,
2013-04-15 03:50:00,45.4,42.6,29.89,West,262,1.0,2.0,90,0.00,,,0.00,Wunderground v.1.15,2013-04-15 10:50:00,
2013-04-15 03:52:00,45.3,42.5,29.89,West,262,0.0,3.0,90,0.00,,,0.00,Wunderground v.1.15,2013-04-15 10:52:00,
2013-04-15 03:55:00,45.2,42.4,29.89,West,262,1.0,3.0,90,0.00,,,0.00,Wunderground v.1.15,2013-04-15 10:55:00,
2013-04-15 03:57:00,45.1,42.3,29.89,North,359,1.0,3.0,90,0.00,,,0.00,Wunderground v.1.15,2013-04-15 10:57:00,
2013-04-15 04:00:00,45.0,42.2,29.89,West,262,0.0,1.0,90,0.00,,,0.00,Wunderground v.1.15,2013-04-15 11:00:00,
2013-04-15 04:03:00,44.9,42.1,29.89,West,262,2.0,4.0,90,0.00,,,0.00,Wunderground v.1.15,2013-04-15 11:03:00,
2013-04-15 04:06:00,44.8,42.3,29.89,North,359,2.0,4.0,91,0.00,,,0.00,Wunderground v.1.15,2013-04-15 11:06:00,
2013-04-15 04:08:00,44.8,42.3,29.89,West,262,0.0,4.0,91,0.00,,,0.00,Wunderground v.1.15,2013-04-15 11:08:00,
2013-04-15 04:11:00,44.7,42.2,29.89,West,262,0.0,2.0,91,0.00,,,0.00,Wunderground v.1.15,2013-04-15 11:11:00,
2013-04-15 04:13:00,44.7,42.2,29.89,West,262,2.0,3.0,91,0.00,,,0.00,Wunderground v.1.15,2013-04-15 11:13:00,
2013-04-15 04:14:00,44.7,42.2,29.89,North,359,2.0,3.0,91,0.00,,,0.00,Wunderground v.1.15,2013-04-15 11:14:00,
2013-04-15 04:16:00,44.6,42.1,29.89,West,263,3.0,3.0,91,0.00,,,0.00,Wunderground v.1.15,2013-04-15 11:16:00,
2013-04-15 04:19:00,44.5,42.3,29.89,WSW,258,4.0,5.0,92,0.00,,,0.00,Wunderground v.1.15,2013-04-15 11:19:00,
2013-04-15 04:20:00,44.4,42.2,29.89,WSW,257,4.0,4.0,92,0.00,,,0.00,Wunderground v.1.15,2013-04-15 11:20:00,
2013-04-15 04:21:00,44.4,42.2,29.89,North,359,5.0,7.0,92,0.00,,,0.00,Wunderground v.1.15,2013-04-15 11:21:00,
2013-04-15 04:24:00,44.2,42.0,29.89,North,359,2.0,7.0,92,0.00,,,0.00,Wunderground v.1.15,2013-04-15 11:24:00,
2013-04-15 04:25:00,44.2,42.0,29.89,North,359,4.0,7.0,92,0.00,,,0.00,Wunderground v.1.15,2013-04-15 11:25:00,
2013-04-15 04:26:00,44.1,41.9,29.89,North,359,3.0,7.0,92,0.00,,,0.00,Wunderground v.1.15,2013-04-15 11:26:00,
2013-04-15 04:30:00,44.0,41.8,29.89,North,359,6.0,6.0,92,0.00,,,0.00,Wunderground v.1.15,2013-04-15 11:30:00,
2013-04-15 04:31:00,44.0,41.8,29.89,West,272,2.0,6.0,92,0.00,,,0.00,Wunderground v.1.15,2013-04-15 11:31:00,
2013-04-15 04:35:00,43.9,41.7,29.89,West,266,7.0,7.0,92,0.00,,,0.00,Wunderground v.1.15,2013-04-15 11:35:00,
2013-04-15 04:36:00,43.9,41.7,29.89,West,263,6.0,7.0,92,0.00,,,0.00,Wunderground v.1.15,2013-04-15 11:36:00,
2013-04-15 04:40:00,43.9,41.7,29.89,North,359,4.0,5.0,92,0.00,,,0.00,Wunderground v.1.15,2013-04-15 11:40:00,
2013-04-15 04:42:00,43.8,41.6,29.89,West,260,3.0,5.0,92,0.00,,,0.00,Wunderground v.1.15,2013-04-15 11:42:00,
2013-04-15 04:45:00,43.8,41.6,29.90,West,260,3.0,6.0,92,0.00,,,0.00,Wunderground v.1.15,2013-04-15 11:45:00,
2013-04-15 04:48:00,43.7,41.8,29.90,West,268,4.0,6.0,93,0.00,,,0.00,Wunderground v.1.15,2013-04-15 11:48:00,
2013-04-15 04:50:00,43.7,41.5,29.90,West,267,3.0,3.0,92,0.00,,,0.00,Wunderground v.1.15,2013-04-15 11:50:00,
2013-04-15 04:53:00,43.7,41.8,29.90,West,278,1.0,4.0,93,0.00,,,0.00,Wunderground v.1.15,2013-04-15 11:53:00,
2013-04-15 04:55:00,43.7,41.8,29.90,West,278,5.0,5.0,93,0.00,,,0.00,Wunderground v.1.15,2013-04-15 11:55:00,
2013-04-15 04:58:00,43.7,41.8,29.89,West,274,5.0,6.0,93,0.00,,,0.00,Wunderground v.1.15,2013-04-15 11:58:00,
2013-04-15 05:00:00,43.6,41.7,29.90,North,359,4.0,4.0,93,0.00,,,0.00,Wunderground v.1.15,2013-04-15 12:00:00,
2013-04-15 05:01:00,43.6,41.7,29.90,West,273,2.0,4.0,93,0.00,,,0.00,Wunderground v.1.15,2013-04-15 12:01:00,
2013-04-15 05:04:00,43.6,41.7,29.90,West,276,4.0,4.0,93,0.00,,,0.00,Wunderground v.1.15,2013-04-15 12:04:00,
2013-04-15 05:05:00,43.6,41.7,29.90,North,359,5.0,6.0,93,0.00,,,0.00,Wunderground v.1.15,2013-04-15 12:05:00,
2013-04-15 05:07:00,43.6,41.7,29.90,West,261,4.0,6.0,93,0.00,,,0.00,Wunderground v.1.15,2013-04-15 12:07:00,
2013-04-15 05:09:00,43.6,41.7,29.90,West,261,2.0,6.0,93,0.00,,,0.00,Wunderground v.1.15,2013-04-15 12:09:00,
2013-04-15 05:11:00,43.6,41.7,29.90,North,359,0.0,5.0,93,0.00,,,0.00,Wunderground v.1.15,2013-04-15 12:11:00,
2013-04-15 05:12:00,43.6,41.7,29.90,West,275,2.0,5.0,93,0.00,,,0.00,Wunderground v.1.15,2013-04-15 12:12:00,
2013-04-15 05:14:00,43.7,41.8,29.90,North,359,2.0,5.0,93,0.00,,,0.00,Wunderground v.1.15,2013-04-15 12:14:00,
2013-04-15 05:17:00,43.6,41.7,29.90,West,273,1.0,5.0,93,0.00,,,0.00,Wunderground v.1.15,2013-04-15 12:17:00,
2013-04-15 05:19:00,43.6,41.4,29.90,North,359,2.0,5.0,92,0.00,,,0.00,Wunderground v.1.15,2013-04-15 12:19:00,
2013-04-15 05:22:00,43.5,41.3,29.90,West,273,3.0,5.0,92,0.00,,,0.00,Wunderground v.1.15,2013-04-15 12:22:00,
2013-04-15 05:24:00,43.5,41.3,29.90,North,359,4.0,5.0,92,0.00,,,0.00,Wunderground v.1.15,2013-04-15 12:24:00,
2013-04-15 05:28:00,43.4,41.2,29.90,West,266,0.0,5.0,92,0.00,,,0.00,Wunderground v.1.15,2013-04-15 12:28:00,
2013-04-15 05:29:00,43.4,41.2,29.90,West,267,1.0,5.0,92,0.00,,,0.00,Wunderground v.1.15,2013-04-15 12:29:00,
2013-04-15 05:33:00,43.2,41.0,29.90,West,267,2.0,3.0,92,0.00,,,0.00,Wunderground v.1.15,2013-04-15 12:33:00,
2013-04-15 05:34:00,43.2,41.0,29.90,West,267,1.0,3.0,92,0.00,,,0.00,Wunderground v.1.15,2013-04-15 12:34:00,
2013-04-15 05:38:00,43.2,41.0,29.90,North,359,2.0,4.0,92,0.00,,,0.00,Wunderground v.1.15,2013-04-15 12:38:00,
2013-04-15 05:39:00,43.1,40.9,29.90,North,359,0.0,4.0,92,0.00,,,0.00,Wunderground v.1.15,2013-04-15 12:39:00,
2013-04-15 05:40:00,43.1,40.9,29.90,West,268,2.0,2.0,92,0.00,,,0.00,Wunderground v.1.15,2013-04-15 12:40:00,
2013-04-15 05:43:00,43.0,40.8,29.90,West,268,2.0,4.0,92,0.00,,,0.00,Wunderground v.1.15,2013-04-15 12:43:00,
2013-04-15 05:44:00,43.1,40.9,29.90,West,269,0.0,4.0,92,0.00,,,0.00,Wunderground v.1.15,2013-04-15 12:44:00,
2013-04-15 05:45:00,43.0,40.8,29.90,North,359,0.0,4.0,92,0.00,,,0.00,Wunderground v.1.15,2013-04-15 12:45:00,
2013-04-15 05:48:00,42.9,40.7,29.90,West,268,2.0,4.0,92,0.00,,,0.00,Wunderground v.1.15,2013-04-15 12:48:00,
2013-04-15 05:49:00,42.9,40.7,29.90,West,269,1.0,4.0,92,0.00,,,0.00,Wunderground v.1.15,2013-04-15 12:49:00,
2013-04-15 05:50:00,42.9,40.7,29.90,West,268,2.0,3.0,92,0.00,,,0.00,Wunderground v.1.15,2013-04-15 12:50:00,
2013-04-15 05:53:00,42.9,41.0,29.90,West,268,0.0,3.0,93,0.00,,,0.00,Wunderground v.1.15,2013-04-15 12:53:00,
2013-04-15 05:54:00,42.9,41.0,29.90,North,359,1.0,3.0,93,0.00,,,0.00,Wunderground v.1.15,2013-04-15 12:54:00,
2013-04-15 05:56:00,42.9,41.0,29.90,North,359,1.0,3.0,93,0.00,,,0.00,Wunderground v.1.15,2013-04-15 12:56:00,
2013-04-15 05:58:00,42.9,41.0,29.90,West,268,0.0,3.0,93,0.00,,,0.00,Wunderground v.1.15,2013-04-15 12:58:00,
2013-04-15 06:00:00,42.9,41.0,29.90,West,269,2.0,2.0,93,0.00,,,0.00,Wunderground v.1.15,2013-04-15 13:00:00,
2013-04-15 06:01:00,42.9,41.0,29.90,West,269,2.0,2.0,93,0.00,,,0.00,Wunderground v.1.15,2013-04-15 13:01:00,
2013-04-15 06:04:00,42.8,40.9,29.90,West,268,1.0,4.0,93,0.00,,,0.00,Wunderground v.1.15,2013-04-15 13:04:00,
2013-04-15 06:05:00,42.8,40.6,29.90,West,268,3.0,4.0,92,0.00,,,0.00,Wunderground v.1.15,2013-04-15 13:05:00,
2013-04-15 06:07:00,42.8,40.9,29.90,North,359,4.0,4.0,93,0.00,,,0.00,Wunderground v.1.15,2013-04-15 13:07:00,
2013-04-15 06:09:00,42.8,40.6,29.90,North,359,6.0,6.0,92,0.00,,,0.00,Wunderground v.1.15,2013-04-15 13:09:00,
2013-04-15 06:10:00,42.8,40.6,29.90,West,268,1.0,3.0,92,0.00,,,0.00,Wunderground v.1.15,2013-04-15 13:10:00,
2013-04-15 06:12:00,42.8,40.9,29.90,West,268,2.0,5.0,93,0.00,,,0.00,Wunderground v.1.15,2013-04-15 13:12:00,
2013-04-15 06:14:00,42.8,40.6,29.90,West,268,1.0,5.0,92,0.00,,,0.00,Wunderground v.1.15,2013-04-15 13:14:00,
2013-04-15 06:15:00,42.8,40.6,29.90,West,268,0.0,5.0,92,0.00,,,0.00,Wunderground v.1.15,2013-04-15 13:15:00,
2013-04-15 06:18:00,42.7,40.5,29.91,West,268,0.0,5.0,92,0.00,,,0.00,Wunderground v.1.15,2013-04-15 13:18:00,
2013-04-15 06:19:00,42.7,40.5,29.91,West,268,1.0,5.0,92,0.00,,,0.00,Wunderground v.1.15,2013-04-15 13:19:00,
2013-04-15 06:20:00,42.7,40.5,29.91,West,269,3.0,3.0,92,0.00,,,0.00,Wunderground v.1.15,2013-04-15 13:20:00,
2013-04-15 06:23:00,42.7,40.5,29.91,West,269,0.0,5.0,92,0.00,,,0.00,Wunderground v.1.15,2013-04-15 13:23:00,
2013-04-15 06:24:00,42.7,40.5,29.91,West,268,2.0,5.0,92,0.00,,,0.00,Wunderground v.1.15,2013-04-15 13:24:00,
2013-04-15 06:25:00,42.7,40.5,29.91,West,268,1.0,5.0,92,0.00,,,0.00,Wunderground v.1.15,2013-04-15 13:25:00,
2013-04-15 06:28:00,42.7,40.5,29.91,West,268,1.0,5.0,92,0.00,,,0.00,Wunderground v.1.15,2013-04-15 13:28:00,
2013-04-15 06:29:00,42.7,40.5,29.91,West,268,0.0,5.0,92,0.00,,,0.00,Wunderground v.1.15,2013-04-15 13:29:00,
2013-04-15 06:30:00,42.7,40.5,29.91,North,359,0.0,1.0,92,0.00,,,0.00,Wunderground v.1.15,2013-04-15 13:30:00,
2013-04-15 06:33:00,42.8,40.6,29.91,West,267,0.0,1.0,92,0.00,,,0.00,Wunderground v.1.15,2013-04-15 13:33:00,
2013-04-15 06:34:00,42.8,40.6,29.91,North,359,0.0,1.0,92,0.00,,,0.00,Wunderground v.1.15,2013-04-15 13:34:00,
2013-04-15 06:35:00,42.8,40.6,29.91,North,359,0.0,1.0,92,0.00,,,0.00,Wunderground v.1.15,2013-04-15 13:35:00,
2013-04-15 06:38:00,42.8,40.6,29.91,West,268,2.0,2.0,92,0.00,,,0.00,Wunderground v.1.15,2013-04-15 13:38:00,
2013-04-15 06:40:00,42.8,40.6,29.91,West,269,1.0,1.0,92,0.00,,,0.00,Wunderground v.1.15,2013-04-15 13:40:00,
2013-04-15 06:43:00,42.8,40.6,29.91,North,359,2.0,5.0,92,0.00,,,0.00,Wunderground v.1.15,2013-04-15 13:43:00,
2013-04-15 06:45:00,42.9,40.7,29.91,North,359,1.0,5.0,92,0.00,,,0.00,Wunderground v.1.15,2013-04-15 13:45:00,
2013-04-15 06:48:00,42.8,40.4,29.91,North,359,0.0,5.0,91,0.00,,,0.00,Wunderground v.1.15,2013-04-15 13:48:00,
2013-04-15 06:50:00,42.8,40.6,29.92,West,264,1.0,1.0,92,0.00,,,0.00,Wunderground v.1.15,2013-04-15 13:50:00,
2013-04-15 06:52:00,42.8,40.4,29.92,West,265,0.0,2.0,91,0.00,,,0.00,Wunderground v.1.15,2013-04-15 13:52:00,
2013-04-15 06:53:00,42.8,40.6,29.92,North,359,1.0,2.0,92,0.00,,,0.00,Wunderground v.1.15,2013-04-15 13:53:00,
2013-04-15 06:55:00,42.8,40.4,29.92,North,359,0.0,2.0,91,0.00,,,0.00,Wunderground v.1.15,2013-04-15 13:55:00,
2013-04-15 06:57:00,42.8,40.4,29.92,West,265,0.0,2.0,91,0.00,,,0.00,Wunderground v.1.15,2013-04-15 13:57:00,
2013-04-15 06:58:00,42.8,40.4,29.92,West,265,0.0,2.0,91,0.00,,,0.00,Wunderground v.1.15,2013-04-15 13:58:00,
2013-04-15 07:00:00,42.8,40.4,29.92,West,264,0.0,0.0,91,0.00,,,0.00,Wunderground v.1.15,2013-04-15 14:00:00,
2013-04-15 07:02:00,42.8,40.4,29.92,West,264,0.0,1.0,91,0.00,,,0.00,Wunderground v.1.15,2013-04-15 14:02:00,
2013-04-15 07:03:00,42.8,40.4,29.92,North,359,0.0,2.0,91,0.00,,,0.00,Wunderground v.1.15,2013-04-15 14:03:00,
2013-04-15 07:05:00,42.8,40.6,29.92,West,268,2.0,3.0,92,0.00,,,0.00,Wunderground v.1.15,2013-04-15 14:05:00,
2013-04-15 07:07:00,42.9,40.5,29.92,West,268,3.0,3.0,91,0.00,,,0.00,Wunderground v.1.15,2013-04-15 14:07:00,
2013-04-15 07:09:00,43.0,40.6,29.92,West,268,1.0,4.0,91,0.00,,,0.00,Wunderground v.1.15,2013-04-15 14:09:00,
2013-04-15 07:11:00,43.0,40.6,29.92,West,268,3.0,3.0,91,0.00,,,0.00,Wunderground v.1.15,2013-04-15 14:11:00,
2013-04-15 07:13:00,43.1,40.7,29.92,West,268,2.0,3.0,91,0.00,,,0.00,Wunderground v.1.15,2013-04-15 14:13:00,
2013-04-15 07:14:00,43.2,40.8,29.92,West,268,2.0,3.0,91,0.00,,,0.00,Wunderground v.1.15,2013-04-15 14:14:00,
2013-04-15 07:16:00,43.2,40.8,29.92,West,268,1.0,3.0,91,0.00,,,0.00,Wunderground v.1.15,2013-04-15 14:16:00,
2013-04-15 07:18:00,43.3,40.8,29.92,West,265,2.0,4.0,91,0.00,,,0.00,Wunderground v.1.15,2013-04-15 14:18:00,
2013-04-15 07:20:00,43.5,41.0,29.92,West,265,0.0,2.0,91,0.00,,,0.00,Wunderground v.1.15,2013-04-15 14:20:00,
2013-04-15 07:21:00,43.6,41.1,29.92,West,265,2.0,5.0,91,0.00,,,0.00,Wunderground v.1.15,2013-04-15 14:21:00,
2013-04-15 07:23:00,43.7,41.2,29.92,West,269,0.0,5.0,91,0.00,,,0.00,Wunderground v.1.15,2013-04-15 14:23:00,
2013-04-15 07:25:00,43.8,41.3,29.92,West,269,3.0,5.0,91,0.00,,,0.00,Wunderground v.1.15,2013-04-15 14:25:00,
2013-04-15 07:28:00,43.9,41.2,29.93,West,269,2.0,5.0,90,0.00,,,0.00,Wunderground v.1.15,2013-04-15 14:28:00,
2013-04-15 07:30:00,44.1,41.4,29.92,West,269,1.0,2.0,90,0.00,,,0.00,Wunderground v.1.15,2013-04-15 14:30:00,
2013-04-15 07:33:00,44.2,41.5,29.93,WNW,283,2.0,5.0,90,0.00,,,0.00,Wunderground v.1.15,2013-04-15 14:33:00,
2013-04-15 07:35:00,44.5,41.5,29.93,WNW,283,1.0,5.0,89,0.00,,,0.00,Wunderground v.1.15,2013-04-15 14:35:00,
2013-04-15 07:38:00,44.6,41.6,29.93,WNW,283,0.0,5.0,89,0.00,,,0.00,Wunderground v.1.15,2013-04-15 14:38:00,
2013-04-15 07:41:00,44.9,41.9,29.93,WNW,283,3.0,3.0,89,0.00,,,0.00,Wunderground v.1.15,2013-04-15 14:41:00,
2013-04-15 07:43:00,45.0,41.7,29.93,WNW,283,2.0,4.0,88,0.00,,,0.00,Wunderground v.1.15,2013-04-15 14:43:00,
2013-04-15 07:44:00,45.0,41.7,29.93,West,277,4.0,4.0,88,0.00,,,0.00,Wunderground v.1.15,2013-04-15 14:44:00,
2013-04-15 07:46:00,45.0,41.4,29.93,West,266,3.0,4.0,87,0.00,,,0.00,Wunderground v.1.15,2013-04-15 14:46:00,
2013-04-15 07:48:00,45.0,41.4,29.93,West,260,4.0,5.0,87,0.00,,,0.00,Wunderground v.1.15,2013-04-15 14:48:00,
2013-04-15 07:49:00,45.1,41.5,29.93,West,260,3.0,5.0,87,0.00,,,0.00,Wunderground v.1.15,2013-04-15 14:49:00,
2013-04-15 07:53:00,45.3,41.7,29.93,WSW,253,0.0,5.0,87,0.00,,,0.00,Wunderground v.1.15,2013-04-15 14:53:00,
2013-04-15 07:55:00,45.4,41.8,29.93,WSW,253,0.0,5.0,87,0.00,,,0.00,Wunderground v.1.15,2013-04-15 14:55:00,
2013-04-15 07:58:00,45.5,41.9,29.93,WSW,258,0.0,5.0,87,0.00,,,0.00,Wunderground v.1.15,2013-04-15 14:58:00,
2013-04-15 08:00:00,45.6,42.0,29.93,WSW,258,1.0,3.0,87,0.00,,,0.00,Wunderground v.1.15,2013-04-15 15:00:00,
2013-04-15 08:03:00,46.0,42.0,29.93,WNW,294,1.0,6.0,86,0.00,,,0.00,Wunderground v.1.15,2013-04-15 15:03:00,
2013-04-15 08:05:00,46.3,41.7,29.93,WNW,302,5.0,9.0,84,0.00,,,0.00,Wunderground v.1.15,2013-04-15 15:05:00,
2013-04-15 08:08:00,46.9,41.7,29.93,NW,308,7.0,10.0,82,0.00,,,0.00,Wunderground v.1.15,2013-04-15 15:08:00,
2013-04-15 08:10:00,47.2,41.3,29.93,WNW,300,5.0,7.0,80,0.00,,,0.00,Wunderground v.1.15,2013-04-15 15:10:00,
2013-04-15 08:13:00,47.4,41.2,29.93,WNW,290,6.0,11.0,79,0.00,,,0.00,Wunderground v.1.15,2013-04-15 15:13:00,
2013-04-15 08:14:00,47.4,40.9,29.93,WNW,293,9.0,11.0,78,0.00,,,0.00,Wunderground v.1.15,2013-04-15 15:14:00,
2013-04-15 08:16:00,47.6,41.1,29.93,NNW,332,5.0,11.0,78,0.00,,,0.00,Wunderground v.1.15,2013-04-15 15:16:00,
2013-04-15 08:18:00,47.8,41.3,29.93,WNW,301,6.0,11.0,78,0.00,,,0.00,Wunderground v.1.15,2013-04-15 15:18:00,
2013-04-15 08:19:00,47.8,40.9,29.93,NW,324,8.0,11.0,77,0.00,,,0.00,Wunderground v.1.15,2013-04-15 15:19:00,
2013-04-15 08:21:00,47.9,41.0,29.93,WNW,303,5.0,10.0,77,0.00,,,0.00,Wunderground v.1.15,2013-04-15 15:21:00,
2013-04-15 08:24:00,48.1,41.2,29.94,NW,314,8.0,10.0,77,0.00,,,0.00,Wunderground v.1.15,2013-04-15 15:24:00,
2013-04-15 08:26:00,48.2,41.0,29.94,NNW,328,6.0,10.0,76,0.00,,,0.00,Wunderground v.1.15,2013-04-15 15:26:00,
2013-04-15 08:30:00,48.4,41.2,29.93,NW,312,3.0,6.0,76,0.00,,,0.00,Wunderground v.1.15,2013-04-15 15:30:00,
2013-04-15 08:31:00,48.4,41.2,29.93,NW,315,8.0,9.0,76,0.00,,,0.00,Wunderground v.1.15,2013-04-15 15:31:00,
2013-04-15 08:35:00,48.5,40.9,29.93,WNW,303,6.0,11.0,75,0.00,,,0.00,Wunderground v.1.15,2013-04-15 15:35:00,
2013-04-15 08:37:00,48.7,41.1,29.93,NW,324,9.0,11.0,75,0.00,,,0.00,Wunderground v.1.15,2013-04-15 15:37:00,
2013-04-15 08:40:00,48.8,40.9,29.93,NW,308,9.0,9.0,74,0.00,,,0.00,Wunderground v.1.15,2013-04-15 15:40:00,
2013-04-15 08:42:00,48.8,40.5,29.93,NW,320,12.0,14.0,73,0.00,,,0.00,Wunderground v.1.15,2013-04-15 15:42:00,
2013-04-15 08:45:00,48.8,40.5,29.93,NW,322,9.0,14.0,73,0.00,,,0.00,Wunderground v.1.15,2013-04-15 15:45:00,
2013-04-15 08:48:00,48.9,40.3,29.93,NW,309,10.0,14.0,72,0.00,,,0.00,Wunderground v.1.15,2013-04-15 15:48:00,
2013-04-15 08:50:00,48.9,39.9,29.93,NW,318,7.0,9.0,71,0.00,,,0.00,Wunderground v.1.15,2013-04-15 15:50:00,
2013-04-15 08:53:00,49.0,40.4,29.93,NW,310,9.0,17.0,72,0.00,,,0.00,Wunderground v.1.15,2013-04-15 15:53:00,
2013-04-15 08:55:00,49.1,40.1,29.93,West,280,12.0,17.0,71,0.00,,,0.00,Wunderground v.1.15,2013-04-15 15:55:00,
2013-04-15 08:58:00,49.2,40.2,29.93,NNW,335,10.0,17.0,71,0.00,,,0.00,Wunderground v.1.15,2013-04-15 15:58:00,
2013-04-15 09:00:00,49.3,40.3,29.93,NW,308,7.0,12.0,71,0.00,,,0.00,Wunderground v.1.15,2013-04-15 16:00:00,
2013-04-15 09:01:00,49.3,39.9,29.93,NNW,331,15.0,15.0,70,0.00,,,0.00,Wunderground v.1.15,2013-04-15 16:01:00,
2013-04-15 09:04:00,49.2,40.2,29.93,NW,313,10.0,16.0,71,0.00,,,0.00,Wunderground v.1.15,2013-04-15 16:04:00,
2013-04-15 09:05:00,49.2,40.2,29.93,NW,325,15.0,16.0,71,0.00,,,0.00,Wunderground v.1.15,2013-04-15 16:05:00,
2013-04-15 09:06:00,49.2,40.2,29.93,NNW,347,8.0,16.0,71,0.00,,,0.00,Wunderground v.1.15,2013-04-15 16:06:00,
2013-04-15 09:09:00,49.3,39.9,29.93,NNW,328,11.0,16.0,70,0.00,,,0.00,Wunderground v.1.15,2013-04-15 16:09:00,
2013-04-15 09:12:00,49.6,40.2,29.93,NW,314,13.0,13.0,70,0.00,,,0.00,Wunderground v.1.15,2013-04-15 16:12:00,
2013-04-15 09:14:00,49.6,40.2,29.93,NW,318,16.0,16.0,70,0.00,,,0.00,Wunderground v.1.15,2013-04-15 16:14:00,
2013-04-15 09:17:00,49.9,40.5,29.93,North,350,12.0,16.0,70,0.00,,,0.00,Wunderground v.1.15,2013-04-15 16:17:00,
2013-04-15 09:18:00,49.9,40.5,29.93,NNW,331,9.0,16.0,70,0.00,,,0.00,Wunderground v.1.15,2013-04-15 16:18:00,
2013-04-15 09:19:00,50.0,40.2,29.93,North,4,8.0,16.0,69,0.00,,,0.00,Wunderground v.1.15,2013-04-15 16:19:00,
2013-04-15 09:23:00,50.1,40.3,29.93,NNW,335,7.0,12.0,69,0.00,,,0.00,Wunderground v.1.15,2013-04-15 16:23:00,
2013-04-15 09:24:00,50.2,40.4,29.92,NW,306,4.0,12.0,69,0.00,,,0.00,Wunderground v.1.15,2013-04-15 16:24:00,
2013-04-15 09:28:00,50.7,40.5,29.92,WNW,303,4.0,13.0,68,0.00,,,0.00,Wunderground v.1.15,2013-04-15 16:28:00,
2013-04-15 09:29:00,50.8,40.6,29.92,WNW,303,3.0,13.0,68,0.00,,,0.00,Wunderground v.1.15,2013-04-15 16:29:00,
2013-04-15 09:33:00,51.3,40.7,29.93,WNW,297,8.0,10.0,67,0.00,,,0.00,Wunderground v.1.15,2013-04-15 16:33:00,
2013-04-15 09:34:00,51.3,40.3,29.93,NW,318,13.0,13.0,66,0.00,,,0.00,Wunderground v.1.15,2013-04-15 16:34:00,
2013-04-15 09:38:00,51.7,40.7,29.93,WNW,303,7.0,13.0,66,0.00,,,0.00,Wunderground v.1.15,2013-04-15 16:38:00,
2013-04-15 09:39:00,51.8,40.8,29.93,WNW,303,9.0,13.0,66,0.00,,,0.00,Wunderground v.1.15,2013-04-15 16:39:00,
2013-04-15 09:43:00,51.9,40.1,29.93,WNW,292,9.0,13.0,64,0.00,,,0.00,Wunderground v.1.15,2013-04-15 16:43:00,
2013-04-15 09:44:00,51.9,40.1,29.93,NW,323,12.0,13.0,64,0.00,,,0.00,Wunderground v.1.15,2013-04-15 16:44:00,
2013-04-15 09:49:00,52.0,40.2,29.93,WNW,301,12.0,13.0,64,0.00,,,0.00,Wunderground v.1.15,2013-04-15 16:49:00,
2013-04-15 09:54:00,52.3,40.1,29.93,NW,316,16.0,16.0,63,0.00,,,0.00,Wunderground v.1.15,2013-04-15 16:54:00,
2013-04-15 09:59:00,52.3,40.1,29.93,NNW,332,11.0,16.0,63,0.00,,,0.00,Wunderground v.1.15,2013-04-15 16:59:00,
2013-04-15 10:00:00,52.4,39.8,29.93,NNW,332,9.0,13.0,62,0.00,,,0.00,Wunderground v.1.15,2013-04-15 17:00:00,
2013-04-15 10:04:00,52.6,39.9,29.93,WNW,289,10.0,15.0,62,0.00,,,0.00,Wunderground v.1.15,2013-04-15 17:04:00,
2013-04-15 10:05:00,52.6,39.5,29.93,NNW,343,7.0,15.0,61,0.00,,,0.00,Wunderground v.1.15,2013-04-15 17:05:00,
2013-04-15 10:09:00,52.8,39.7,29.93,WNW,293,7.0,15.0,61,0.00,,,0.00,Wunderground v.1.15,2013-04-15 17:09:00,
2013-04-15 10:10:00,52.9,39.8,29.93,NW,314,9.0,9.0,61,0.00,,,0.00,Wunderground v.1.15,2013-04-15 17:10:00,
2013-04-15 10:14:00,53.2,39.7,29.93,NW,310,10.0,13.0,60,0.00,,,0.00,Wunderground v.1.15,2013-04-15 17:14:00,
2013-04-15 10:15:00,53.2,40.1,29.93,NNW,334,11.0,13.0,61,0.00,,,0.00,Wunderground v.1.15,2013-04-15 17:15:00,
2013-04-15 10:19:00,53.6,39.6,29.93,NW,304,7.0,15.0,59,0.00,,,0.00,Wunderground v.1.15,2013-04-15 17:19:00,
2013-04-15 10:20:00,53.6,39.6,29.93,NNW,332,10.0,10.0,59,0.00,,,0.00,Wunderground v.1.15,2013-04-15 17:20:00,
2013-04-15 10:21:00,53.7,39.7,29.93,NW,306,10.0,12.0,59,0.00,,,0.00,Wunderground v.1.15,2013-04-15 17:21:00,
2013-04-15 10:25:00,53.7,39.3,29.93,NNW,331,12.0,15.0,58,0.00,,,0.00,Wunderground v.1.15,2013-04-15 17:25:00,
2013-04-15 10:26:00,53.7,39.3,29.93,NW,318,8.0,15.0,58,0.00,,,0.00,Wunderground v.1.15,2013-04-15 17:26:00,
2013-04-15 10:27:00,53.7,39.3,29.93,NNW,334,11.0,15.0,58,0.00,,,0.00,Wunderground v.1.15,2013-04-15 17:27:00,
2013-04-15 10:30:00,53.8,39.4,29.93,NW,311,5.0,10.0,58,0.00,,,0.00,Wunderground v.1.15,2013-04-15 17:30:00,
2013-04-15 10:32:00,54.1,39.6,29.93,NW,320,13.0,13.0,58,0.00,,,0.00,Wunderground v.1.15,2013-04-15 17:32:00,
2013-04-15 10:35:00,54.3,39.8,29.93,NNW,328,11.0,15.0,58,0.00,,,0.00,Wunderground v.1.15,2013-04-15 17:35:00,
2013-04-15 10:37:00,54.4,39.0,29.93,WNW,301,9.0,15.0,56,0.00,,,0.00,Wunderground v.1.15,2013-04-15 17:37:00,
2013-04-15 10:40:00,54.6,39.2,29.93,WNW,299,8.0,9.0,56,0.00,,,0.00,Wunderground v.1.15,2013-04-15 17:40:00,
2013-04-15 10:43:00,54.5,38.2,29.93,NW,308,13.0,14.0,54,0.00,,,0.00,Wunderground v.1.15,2013-04-15 17:43:00,
2013-04-15 10:45:00,54.5,38.7,29.93,NNW,336,14.0,17.0,55,0.00,,,0.00,Wunderground v.1.15,2013-04-15 17:45:00,
2013-04-15 10:48:00,54.7,38.8,29.93,NNW,339,9.0,17.0,55,0.00,,,0.00,Wunderground v.1.15,2013-04-15 17:48:00,
2013-04-15 10:52:00,55.4,39.0,29.93,NW,317,14.0,14.0,54,0.00,,,0.00,Wunderground v.1.15,2013-04-15 17:52:00,
2013-04-15 10:53:00,55.4,38.5,29.93,NW,308,7.0,14.0,53,0.00,,,0.00,Wunderground v.1.15,2013-04-15 17:53:00,
2013-04-15 10:58:00,55.5,38.6,29.93,NNW,330,15.0,15.0,53,0.00,,,0.00,Wunderground v.1.15,2013-04-15 17:58:00,
2013-04-15 11:03:00,55.6,38.2,29.93,NNW,332,11.0,15.0,52,0.00,,,0.00,Wunderground v.1.15,2013-04-15 18:03:00,
2013-04-15 11:08:00,56.2,38.3,29.93,NW,308,10.0,15.0,51,0.00,,,0.00,Wunderground v.1.15,2013-04-15 18:08:00,
2013-04-15 11:09:00,56.3,37.9,29.93,NNW,335,13.0,15.0,50,0.00,,,0.00,Wunderground v.1.15,2013-04-15 18:09:00,
2013-04-15 11:13:00,56.0,37.6,29.93,NW,320,7.0,15.0,50,0.00,,,0.00,Wunderground v.1.15,2013-04-15 18:13:00,
2013-04-15 11:14:00,56.1,37.7,29.93,NW,312,3.0,15.0,50,0.00,,,0.00,Wunderground v.1.15,2013-04-15 18:14:00,
2013-04-15 11:19:00,56.2,37.3,29.93,NNW,347,12.0,18.0,49,0.00,,,0.00,Wunderground v.1.15,2013-04-15 18:19:00,
2013-04-15 11:20:00,56.3,37.4,29.93,NW,323,10.0,17.0,49,0.00,,,0.00,Wunderground v.1.15,2013-04-15 18:20:00,
2013-04-15 11:24:00,56.8,36.8,29.92,NW,324,9.0,17.0,47,0.00,,,0.00,Wunderground v.1.15,2013-04-15 18:24:00,
2013-04-15 11:27:00,56.9,36.9,29.93,NNW,328,11.0,17.0,47,0.00,,,0.00,Wunderground v.1.15,2013-04-15 18:27:00,
2013-04-15 11:29:00,56.8,36.8,29.93,NW,326,10.0,17.0,47,0.00,,,0.00,Wunderground v.1.15,2013-04-15 18:29:00,
2013-04-15 11:34:00,57.4,36.8,29.92,NNW,340,9.0,14.0,46,0.00,,,0.00,Wunderground v.1.15,2013-04-15 18:34:00,
2013-04-15 11:39:00,57.5,36.3,29.92,NW,314,12.0,16.0,45,0.00,,,0.00,Wunderground v.1.15,2013-04-15 18:39:00,
2013-04-15 11:40:00,57.4,35.6,29.92,NNW,328,9.0,10.0,44,0.00,,,0.00,Wunderground v.1.15,2013-04-15 18:40:00,
2013-04-15 11:44:00,57.3,35.0,29.92,NW,316,10.0,19.0,43,0.00,,,0.00,Wunderground v.1.15,2013-04-15 18:44:00,
2013-04-15 11:45:00,57.3,35.6,29.92,NW,319,14.0,19.0,44,0.00,,,0.00,Wunderground v.1.15,2013-04-15 18:45:00,
2013-04-15 11:50:00,58.1,35.7,29.92,WNW,303,11.0,11.0,43,0.00,,,0.00,Wunderground v.1.15,2013-04-15 18:50:00,
2013-04-15 11:55:00,58.9,35.8,29.92,WNW,283,16.0,18.0,42,0.00,,,0.00,Wunderground v.1.15,2013-04-15 18:55:00,
2013-04-15 12:00:00,59.3,34.3,29.92,WNW,299,12.0,14.0,39,0.00,,,0.00,Wunderground v.1.15,2013-04-15 19:00:00,
2013-04-15 12:05:00,59.0,33.4,29.92,West,260,16.0,21.0,38,0.00,,,0.00,Wunderground v.1.15,2013-04-15 19:05:00,
2013-04-15 12:06:00,58.7,33.1,29.92,WNW,297,15.0,21.0,38,0.00,,,0.00,Wunderground v.1.15,2013-04-15 19:06:00,
2013-04-15 12:10:00,58.7,33.8,29.92,WNW,293,12.0,15.0,39,0.00,,,0.00,Wunderground v.1.15,2013-04-15 19:10:00,
2013-04-15 12:11:00,58.7,33.8,29.92,West,281,11.0,15.0,39,0.00,,,0.00,Wunderground v.1.15,2013-04-15 19:11:00,
2013-04-15 12:12:00,58.8,33.2,29.92,NW,316,10.0,15.0,38,0.00,,,0.00,Wunderground v.1.15,2013-04-15 19:12:00,
2013-04-15 12:15:00,58.9,34.0,29.92,West,278,11.0,19.0,39,0.00,,,0.00,Wunderground v.1.15,2013-04-15 19:15:00,
2013-04-15 12:16:00,59.0,33.4,29.92,WNW,285,6.0,19.0,38,0.00,,,0.00,Wunderground v.1.15,2013-04-15 19:16:00,
2013-04-15 12:17:00,59.1,33.5,29.92,NNW,343,11.0,19.0,38,0.00,,,0.00,Wunderground v.1.15,2013-04-15 19:17:00,
2013-04-15 12:20:00,59.0,33.4,29.92,WSW,255,11.0,14.0,38,0.00,,,0.00,Wunderground v.1.15,2013-04-15 19:20:00,
2013-04-15 12:21:00,59.0,33.4,29.92,West,265,11.0,14.0,38,0.00,,,0.00,Wunderground v.1.15,2013-04-15 19:21:00,
2013-04-15 12:22:00,59.2,33.6,29.92,WNW,297,13.0,14.0,38,0.00,,,0.00,Wunderground v.1.15,2013-04-15 19:22:00,
2013-04-15 12:25:00,59.9,34.9,29.92,West,281,11.0,16.0,39,0.00,,,0.00,Wunderground v.1.15,2013-04-15 19:25:00,
2013-04-15 12:26:00,60.0,35.0,29.92,West,267,16.0,16.0,39,0.00,,,0.00,Wunderground v.1.15,2013-04-15 19:26:00,
2013-04-15 12:27:00,60.0,35.0,29.92,West,260,11.0,16.0,39,0.00,,,0.00,Wunderground v.1.15,2013-04-15 19:27:00,
2013-04-15 12:31:00,60.1,35.0,29.91,West,260,12.0,15.0,39,0.00,,,0.00,Wunderground v.1.15,2013-04-15 19:31:00,
2013-04-15 12:32:00,60.0,34.3,29.91,West,271,11.0,17.0,38,0.00,,,0.00,Wunderground v.1.15,2013-04-15 19:32:00,
2013-04-15 12:33:00,59.7,34.0,29.91,West,276,9.0,17.0,38,0.00,,,0.00,Wunderground v.1.15,2013-04-15 19:33:00,
2013-04-15 12:36:00,59.6,33.3,29.91,WNW,295,16.0,18.0,37,0.00,,,0.00,Wunderground v.1.15,2013-04-15 19:36:00,
2013-04-15 12:37:00,59.6,33.3,29.91,West,274,8.0,18.0,37,0.00,,,0.00,Wunderground v.1.15,2013-04-15 19:37:00,
2013-04-15 12:39:00,59.7,33.4,29.91,WSW,251,14.0,18.0,37,0.00,,,0.00,Wunderground v.1.15,2013-04-15 19:39:00,
2013-04-15 12:42:00,59.6,33.3,29.91,West,280,8.0,15.0,37,0.00,,,0.00,Wunderground v.1.15,2013-04-15 19:42:00,
2013-04-15 12:46:00,59.8,33.5,29.90,West,270,21.0,25.0,37,0.00,,,0.00,Wunderground v.1.15,2013-04-15 19:46:00,
2013-04-15 12:48:00,59.9,33.5,29.91,WNW,287,11.0,25.0,37,0.00,,,0.00,Wunderground v.1.15,2013-04-15 19:48:00,
2013-04-15 12:52:00,59.5,33.2,29.90,West,274,11.0,17.0,37,0.00,,,0.00,Wunderground v.1.15,2013-04-15 19:52:00,
2013-04-15 12:53:00,59.8,34.8,29.90,West,280,14.0,18.0,39,0.00,,,0.00,Wunderground v.1.15,2013-04-15 19:53:00,
2013-04-15 12:54:00,59.9,33.5,29.91,West,280,19.0,19.0,37,0.00,,,0.00,Wunderground v.1.15,2013-04-15 19:54:00,
2013-04-15 12:57:00,59.8,33.5,29.90,West,264,18.0,20.0,37,0.00,,,0.00,Wunderground v.1.15,2013-04-15 19:57:00,
2013-04-15 12:59:00,60.1,32.3,29.90,WNW,302,9.0,21.0,35,0.00,,,0.00,Wunderground v.1.15,2013-04-15 19:59:00,
2013-04-15 13:02:00,60.2,32.4,29.90,West,261,23.0,23.0,35,0.00,,,0.00,Wunderground v.1.15,2013-04-15 20:02:00,
2013-04-15 13:07:00,60.2,31.7,29.90,West,268,13.0,23.0,34,0.00,,,0.00,Wunderground v.1.15,2013-04-15 20:07:00,
2013-04-15 13:12:00,60.2,32.4,29.90,WNW,289,17.0,23.0,35,0.00,,,0.00,Wunderground v.1.15,2013-04-15 20:12:00,
2013-04-15 13:13:00,60.2,33.1,29.91,NNW,331,10.0,23.0,36,0.00,,,0.00,Wunderground v.1.15,2013-04-15 20:13:00,
2013-04-15 13:17:00,60.0,36.8,29.90,WSW,246,22.0,24.0,42,0.00,,,0.00,Wunderground v.1.15,2013-04-15 20:17:00,
2013-04-15 13:18:00,59.8,40.1,29.90,WSW,253,18.0,24.0,48,0.00,,,0.00,Wunderground v.1.15,2013-04-15 20:18:00,
2013-04-15 13:22:00,59.0,40.9,29.90,WSW,239,20.0,24.0,51,0.00,,,0.00,Wunderground v.1.15,2013-04-15 20:22:00,
2013-04-15 13:23:00,59.0,40.9,29.90,SSW,210,17.0,24.0,51,0.00,,,0.00,Wunderground v.1.15,2013-04-15 20:23:00,
2013-04-15 13:28:00,59.1,41.0,29.90,West,266,21.0,26.0,51,0.00,,,0.00,Wunderground v.1.15,2013-04-15 20:28:00,
2013-04-15 13:29:00,59.1,40.5,29.90,SW,226,13.0,26.0,50,0.00,,,0.00,Wunderground v.1.15,2013-04-15 20:29:00,
2013-04-15 13:33:00,59.1,39.9,29.90,West,268,16.0,28.0,49,0.00,,,0.00,Wunderground v.1.15,2013-04-15 20:33:00,
2013-04-15 13:34:00,59.2,40.6,29.90,WSW,253,20.0,28.0,50,0.00,,,0.00,Wunderground v.1.15,2013-04-15 20:34:00,
2013-04-15 13:38:00,58.9,40.3,29.90,SW,233,14.0,28.0,50,0.00,,,0.00,Wunderground v.1.15,2013-04-15 20:38:00,
2013-04-15 13:39:00,58.5,39.9,29.89,WSW,248,24.0,28.0,50,0.00,,,0.00,Wunderground v.1.15,2013-04-15 20:39:00,
2013-04-15 13:43:00,58.6,41.0,29.90,SW,235,13.0,27.0,52,0.00,,,0.00,Wunderground v.1.15,2013-04-15 20:43:00,
2013-04-15 13:44:00,58.9,41.3,29.90,West,262,27.0,27.0,52,0.00,,,0.00,Wunderground v.1.15,2013-04-15 20:44:00,
2013-04-15 13:48:00,58.1,40.1,29.89,WSW,249,20.0,30.0,51,0.00,,,0.00,Wunderground v.1.15,2013-04-15 20:48:00,
2013-04-15 13:49:00,57.9,39.9,29.89,SW,235,26.0,32.0,51,0.00,,,0.00,Wunderground v.1.15,2013-04-15 20:49:00,
2013-04-15 13:53:00,58.0,40.5,29.89,SW,234,14.0,28.0,52,0.00,,,0.00,Wunderground v.1.15,2013-04-15 20:53:00,
2013-04-15 13:54:00,58.0,40.5,29.89,WSW,245,13.0,28.0,52,0.00,,,0.00,Wunderground v.1.15,2013-04-15 20:54:00,
2013-04-15 13:58:00,58.6,41.5,29.89,SW,234,21.0,28.0,53,0.00,,,0.00,Wunderground v.1.15,2013-04-15 20:58:00,
2013-04-15 13:59:00,58.4,40.8,29.89,WSW,244,20.0,28.0,52,0.00,,,0.00,Wunderground v.1.15,2013-04-15 20:59:00,
2013-04-15 14:04:00,57.8,41.3,29.89,SW,235,23.0,26.0,54,0.00,,,0.00,Wunderground v.1.15,2013-04-15 21:04:00,
2013-04-15 14:05:00,58.0,41.4,29.89,WSW,244,13.0,26.0,54,0.00,,,0.00,Wunderground v.1.15,2013-04-15 21:05:00,
2013-04-15 14:09:00,58.4,41.8,29.89,West,271,23.0,27.0,54,0.00,,,0.00,Wunderground v.1.15,2013-04-15 21:09:00,
2013-04-15 14:10:00,58.2,41.1,29.89,WSW,249,17.0,25.0,53,0.00,,,0.00,Wunderground v.1.15,2013-04-15 21:10:00,
2013-04-15 14:14:00,58.5,39.9,29.89,WSW,243,24.0,26.0,50,0.00,,,0.00,Wunderground v.1.15,2013-04-15 21:14:00,
2013-04-15 14:15:00,58.4,39.8,29.89,WSW,256,16.0,30.0,50,0.00,,,0.00,Wunderground v.1.15,2013-04-15 21:15:00,
2013-04-15 14:19:00,59.0,40.4,29.89,West,262,17.0,30.0,50,0.00,,,0.00,Wunderground v.1.15,2013-04-15 21:19:00,
2013-04-15 14:20:00,59.0,40.4,29.89,WSW,251,15.0,17.0,50,0.00,,,0.00,Wunderground v.1.15,2013-04-15 21:20:00,
2013-04-15 14:24:00,58.9,41.3,29.89,West,262,20.0,24.0,52,0.00,,,0.00,Wunderground v.1.15,2013-04-15 21:24:00,
2013-04-15 14:25:00,58.7,41.6,29.89,West,275,15.0,24.0,53,0.00,,,0.00,Wunderground v.1.15,2013-04-15 21:25:00,
2013-04-15 14:26:00,58.7,41.6,29.88,NW,314,9.0,24.0,53,0.00,,,0.00,Wunderground v.1.15,2013-04-15 21:26:00,
2013-04-15 14:29:00,58.7,41.1,29.88,WSW,251,20.0,27.0,52,0.00,,,0.00,Wunderground v.1.15,2013-04-15 21:29:00,
2013-04-15 14:30:00,58.4,40.8,29.88,SW,222,23.0,26.0,52,0.00,,,0.00,Wunderground v.1.15,2013-04-15 21:30:00,
2013-04-15 14:32:00,58.3,41.2,29.88,SW,227,15.0,28.0,53,0.00,,,0.00,Wunderground v.1.15,2013-04-15 21:32:00,
2013-04-15 14:34:00,58.7,41.1,29.88,SW,235,20.0,28.0,52,0.00,,,0.00,Wunderground v.1.15,2013-04-15 21:34:00,
2013-04-15 14:35:00,58.4,40.8,29.88,SW,231,14.0,28.0,52,0.00,,,0.00,Wunderground v.1.15,2013-04-15 21:35:00,
2013-04-15 14:37:00,58.8,42.7,29.88,West,267,23.0,28.0,55,0.00,,,0.00,Wunderground v.1.15,2013-04-15 21:37:00,
2013-04-15 14:39:00,58.7,42.1,29.88,SW,230,17.0,28.0,54,0.00,,,0.00,Wunderground v.1.15,2013-04-15 21:39:00,
2013-04-15 14:40:00,58.8,42.2,29.88,WSW,256,26.0,26.0,54,0.00,,,0.00,Wunderground v.1.15,2013-04-15 21:40:00,
2013-04-15 14:41:00,58.8,41.7,29.88,SW,229,10.0,26.0,53,0.00,,,0.00,Wunderground v.1.15,2013-04-15 21:41:00,
2013-04-15 14:42:00,59.1,41.5,29.88,WSW,255,16.0,26.0,52,0.00,,,0.00,Wunderground v.1.15,2013-04-15 21:42:00,
2013-04-15 14:44:00,58.7,41.6,29.88,WSW,242,14.0,27.0,53,0.00,,,0.00,Wunderground v.1.15,2013-04-15 21:44:00,
2013-04-15 14:45:00,58.5,41.9,29.88,WSW,243,22.0,27.0,54,0.00,,,0.00,Wunderground v.1.15,2013-04-15 21:45:00,
2013-04-15 14:46:00,58.3,41.7,29.88,WSW,244,8.0,27.0,54,0.00,,,0.00,Wunderground v.1.15,2013-04-15 21:46:00,
2013-04-15 14:47:00,58.2,41.6,29.88,WSW,242,9.0,27.0,54,0.00,,,0.00,Wunderground v.1.15,2013-04-15 21:47:00,
2013-04-15 14:50:00,58.4,41.3,29.88,WSW,249,18.0,18.0,53,0.00,,,0.00,Wunderground v.1.15,2013-04-15 21:50:00,
2013-04-15 14:51:00,58.2,41.1,29.88,SW,236,23.0,23.0,53,0.00,,,0.00,Wunderground v.1.15,2013-04-15 21:51:00,
2013-04-15 14:52:00,58.3,40.7,29.88,SW,225,22.0,31.0,52,0.00,,,0.00,Wunderground v.1.15,2013-04-15 21:52:00,
2013-04-15 14:55:00,58.3,40.7,29.88,WSW,251,18.0,31.0,52,0.00,,,0.00,Wunderground v.1.15,2013-04-15 21:55:00,
2013-04-15 14:56:00,58.3,41.2,29.88,SW,235,19.0,31.0,53,0.00,,,0.00,Wunderground v.1.15,2013-04-15 21:56:00,
2013-04-15 14:57:00,58.5,41.4,29.88,WSW,244,23.0,31.0,53,0.00,,,0.00,Wunderground v.1.15,2013-04-15 21:57:00,
2013-04-15 15:00:00,58.0,41.0,29.88,WSW,239,13.0,19.0,53,0.00,,,0.00,Wunderground v.1.15,2013-04-15 22:00:00,
2013-04-15 15:01:00,58.1,41.0,29.88,SW,223,18.0,24.0,53,0.00,,,0.00,Wunderground v.1.15,2013-04-15 22:01:00,
2013-04-15 15:02:00,58.1,41.0,29.88,WSW,241,17.0,24.0,53,0.00,,,0.00,Wunderground v.1.15,2013-04-15 22:02:00,
2013-04-15 15:03:00,58.1,41.0,29.88,WSW,244,19.0,24.0,53,0.00,,,0.00,Wunderground v.1.15,2013-04-15 22:03:00,
2013-04-15 15:05:00,58.3,41.2,29.88,WSW,240,14.0,26.0,53,0.00,,,0.00,Wunderground v.1.15,2013-04-15 22:05:00,
2013-04-15 15:06:00,58.6,41.5,29.88,WSW,243,17.0,26.0,53,0.00,,,0.00,Wunderground v.1.15,2013-04-15 22:06:00,
2013-04-15 15:08:00,58.7,40.6,29.88,WSW,252,26.0,31.0,51,0.00,,,0.00,Wunderground v.1.15,2013-04-15 22:08:00,
2013-04-15 15:10:00,58.6,40.0,29.88,WSW,256,13.0,22.0,50,0.00,,,0.00,Wunderground v.1.15,2013-04-15 22:10:00,
2013-04-15 15:11:00,58.7,40.1,29.88,WSW,241,22.0,26.0,50,0.00,,,0.00,Wunderground v.1.15,2013-04-15 22:11:00,
2013-04-15 15:13:00,58.7,41.1,29.88,West,264,16.0,27.0,52,0.00,,,0.00,Wunderground v.1.15,2013-04-15 22:13:00,
2013-04-15 15:15:00,58.4,41.8,29.88,WSW,256,8.0,27.0,54,0.00,,,0.00,Wunderground v.1.15,2013-04-15 22:15:00,
2013-04-15 15:17:00,58.4,41.3,29.88,WSW,256,12.0,27.0,53,0.00,,,0.00,Wunderground v.1.15,2013-04-15 22:17:00,
2013-04-15 15:18:00,58.6,41.0,29.88,WNW,285,17.0,27.0,52,0.00,,,0.00,Wunderground v.1.15,2013-04-15 22:18:00,
2013-04-15 15:21:00,58.7,40.1,29.88,WSW,246,12.0,21.0,50,0.00,,,0.00,Wunderground v.1.15,2013-04-15 22:21:00,
2013-04-15 15:22:00,58.6,40.0,29.88,WSW,245,14.0,27.0,50,0.00,,,0.00,Wunderground v.1.15,2013-04-15 22:22:00,
2013-04-15 15:23:00,58.5,39.9,29.88,WSW,256,13.0,27.0,50,0.00,,,0.00,Wunderground v.1.15,2013-04-15 22:23:00,
2013-04-15 15:24:00,58.5,39.9,29.88,West,269,13.0,27.0,50,0.00,,,0.00,Wunderground v.1.15,2013-04-15 22:24:00,
2013-04-15 15:26:00,58.3,40.7,29.88,WSW,248,21.0,27.0,52,0.00,,,0.00,Wunderground v.1.15,2013-04-15 22:26:00,
2013-04-15 15:27:00,57.9,39.9,29.88,West,274,24.0,28.0,51,0.00,,,0.00,Wunderground v.1.15,2013-04-15 22:27:00,
2013-04-15 15:29:00,57.6,40.6,29.88,WSW,256,23.0,30.0,53,0.00,,,0.00,Wunderground v.1.15,2013-04-15 22:29:00,
2013-04-15 15:31:00,57.3,40.3,29.88,WSW,248,13.0,22.0,53,0.00,,,0.00,Wunderground v.1.15,2013-04-15 22:31:00,
2013-04-15 15:32:00,57.3,40.3,29.87,WSW,245,20.0,22.0,53,0.00,,,0.00,Wunderground v.1.15,2013-04-15 22:32:00,
2013-04-15 15:34:00,57.5,41.0,29.87,WSW,241,9.0,22.0,54,0.00,,,0.00,Wunderground v.1.15,2013-04-15 22:34:00,
2013-04-15 15:36:00,57.6,40.1,29.87,WSW,245,23.0,27.0,52,0.00,,,0.00,Wunderground v.1.15,2013-04-15 22:36:00,
2013-04-15 15:37:00,57.4,39.9,29.88,WSW,249,13.0,27.0,52,0.00,,,0.00,Wunderground v.1.15,2013-04-15 22:37:00,
2013-04-15 15:39:00,57.3,40.3,29.87,WSW,257,16.0,27.0,53,0.00,,,0.00,Wunderground v.1.15,2013-04-15 22:39:00,
2013-04-15 15:42:00,57.5,40.5,29.87,West,276,19.0,28.0,53,0.00,,,0.00,Wunderground v.1.15,2013-04-15 22:42:00,
2013-04-15 15:43:00,57.7,40.7,29.87,WSW,247,19.0,28.0,53,0.00,,,0.00,Wunderground v.1.15,2013-04-15 22:43:00,
2013-04-15 15:45:00,57.7,40.2,29.87,WSW,254,20.0,28.0,52,0.00,,,0.00,Wunderground v.1.15,2013-04-15 22:45:00,
2013-04-15 15:47:00,57.8,40.3,29.87,WSW,256,24.0,28.0,52,0.00,,,0.00,Wunderground v.1.15,2013-04-15 22:47:00,
2013-04-15 15:48:00,57.6,39.6,29.87,West,270,17.0,28.0,51,0.00,,,0.00,Wunderground v.1.15,2013-04-15 22:48:00,
2013-04-15 15:50:00,57.2,39.7,29.87,WSW,249,18.0,26.0,52,0.00,,,0.00,Wunderground v.1.15,2013-04-15 22:50:00,
2013-04-15 15:53:00,57.8,40.3,29.86,West,271,19.0,26.0,52,0.00,,,0.00,Wunderground v.1.15,2013-04-15 22:53:00,
2013-04-15 15:55:00,58.3,40.7,29.87,West,267,20.0,26.0,52,0.00,,,0.00,Wunderground v.1.15,2013-04-15 22:55:00,
2013-04-15 15:56:00,58.2,40.1,29.86,West,272,26.0,26.0,51,0.00,,,0.00,Wunderground v.1.15,2013-04-15 22:56:00,
2013-04-15 15:58:00,57.8,39.8,29.87,WSW,253,18.0,26.0,51,0.00,,,0.00,Wunderground v.1.15,2013-04-15 22:58:00,
2013-04-15 16:00:00,57.6,40.1,29.87,West,269,14.0,22.0,52,0.00,,,0.00,Wunderground v.1.15,2013-04-15 23:00:00,
2013-04-15 16:01:00,57.7,40.2,29.86,West,268,20.0,22.0,52,0.00,,,0.00,Wunderground v.1.15,2013-04-15 23:01:00,
2013-04-15 16:03:00,57.9,40.4,29.86,WSW,239,17.0,26.0,52,0.00,,,0.00,Wunderground v.1.15,2013-04-15 23:03:00,
2013-04-15 16:04:00,58.1,40.1,29.86,WNW,295,10.0,26.0,51,0.00,,,0.00,Wunderground v.1.15,2013-04-15 23:04:00,
2013-04-15 16:05:00,58.1,39.5,29.86,West,278,22.0,26.0,50,0.00,,,0.00,Wunderground v.1.15,2013-04-15 23:05:00,
2013-04-15 16:07:00,58.2,40.1,29.86,West,271,14.0,26.0,51,0.00,,,0.00,Wunderground v.1.15,2013-04-15 23:07:00,
2013-04-15 16:08:00,58.2,40.1,29.86,West,262,18.0,26.0,51,0.00,,,0.00,Wunderground v.1.15,2013-04-15 23:08:00,
2013-04-15 16:09:00,58.3,40.2,29.86,West,280,13.0,26.0,51,0.00,,,0.00,Wunderground v.1.15,2013-04-15 23:09:00,
2013-04-15 16:10:00,58.4,39.8,29.86,WSW,248,8.0,16.0,50,0.00,,,0.00,Wunderground v.1.15,2013-04-15 23:10:00,
2013-04-15 16:12:00,58.6,40.5,29.86,WSW,241,22.0,22.0,51,0.00,,,0.00,Wunderground v.1.15,2013-04-15 23:12:00,
2013-04-15 16:13:00,58.4,40.3,29.86,WSW,258,20.0,30.0,51,0.00,,,0.00,Wunderground v.1.15,2013-04-15 23:13:00,
2013-04-15 16:14:00,58.1,39.5,29.86,WSW,258,15.0,30.0,50,0.00,,,0.00,Wunderground v.1.15,2013-04-15 23:14:00,
2013-04-15 16:15:00,58.1,40.1,29.86,WSW,252,15.0,30.0,51,0.00,,,0.00,Wunderground v.1.15,2013-04-15 23:15:00,
2013-04-15 16:17:00,57.9,39.4,29.86,West,265,11.0,30.0,50,0.00,,,0.00,Wunderground v.1.15,2013-04-15 23:17:00,
2013-04-15 16:18:00,58.0,39.5,29.86,WSW,255,17.0,30.0,50,0.00,,,0.00,Wunderground v.1.15,2013-04-15 23:18:00,
2013-04-15 16:19:00,58.0,40.0,29.86,West,267,20.0,30.0,51,0.00,,,0.00,Wunderground v.1.15,2013-04-15 23:19:00,
2013-04-15 16:20:00,57.8,39.3,29.86,West,270,17.0,20.0,50,0.00,,,0.00,Wunderground v.1.15,2013-04-15 23:20:00,
2013-04-15 16:22:00,57.7,39.7,29.86,WSW,237,17.0,25.0,51,0.00,,,0.00,Wunderground v.1.15,2013-04-15 23:22:00,
2013-04-15 16:24:00,58.0,39.5,29.86,West,281,13.0,25.0,50,0.00,,,0.00,Wunderground v.1.15,2013-04-15 23:24:00,
2013-04-15 16:25:00,58.1,39.5,29.86,WSW,254,17.0,25.0,50,0.00,,,0.00,Wunderground v.1.15,2013-04-15 23:25:00,
2013-04-15 16:28:00,57.8,39.3,29.87,WSW,250,21.0,25.0,50,0.00,,,0.00,Wunderground v.1.15,2013-04-15 23:28:00,
2013-04-15 16:29:00,57.6,39.6,29.86,WSW,241,16.0,25.0,51,0.00,,,0.00,Wunderground v.1.15,2013-04-15 23:29:00,
2013-04-15 16:30:00,57.5,40.0,29.86,West,262,17.0,21.0,52,0.00,,,0.00,Wunderground v.1.15,2013-04-15 23:30:00,
2013-04-15 16:33:00,57.4,39.4,29.87,WSW,256,18.0,24.0,51,0.00,,,0.00,Wunderground v.1.15,2013-04-15 23:33:00,
2013-04-15 16:34:00,57.4,39.4,29.87,WSW,237,13.0,24.0,51,0.00,,,0.00,Wunderground v.1.15,2013-04-15 23:34:00,
2013-04-15 16:35:00,57.5,39.5,29.87,WNW,284,12.0,24.0,51,0.00,,,0.00,Wunderground v.1.15,2013-04-15 23:35:00,
2013-04-15 16:36:00,57.6,39.6,29.87,West,274,16.0,27.0,51,0.00,,,0.00,Wunderground v.1.15,2013-04-15 23:36:00,
2013-04-15 16:38:00,57.2,39.2,29.86,West,259,20.0,27.0,51,0.00,,,0.00,Wunderground v.1.15,2013-04-15 23:38:00,
2013-04-15 16:39:00,57.1,39.1,29.86,WSW,251,18.0,27.0,51,0.00,,,0.00,Wunderground v.1.15,2013-04-15 23:39:00,
2013-04-15 16:40:00,57.0,39.0,29.86,WSW,254,14.0,18.0,51,0.00,,,0.00,Wunderground v.1.15,2013-04-15 23:40:00,
2013-04-15 16:41:00,57.1,39.6,29.87,WSW,256,15.0,22.0,52,0.00,,,0.00,Wunderground v.1.15,2013-04-15 23:41:00,
2013-04-15 16:44:00,56.9,39.4,29.87,West,259,11.0,25.0,52,0.00,,,0.00,Wunderground v.1.15,2013-04-15 23:44:00,
2013-04-15 16:45:00,56.9,39.9,29.86,West,271,14.0,29.0,53,0.00,,,0.00,Wunderground v.1.15,2013-04-15 23:45:00,
2013-04-15 16:46:00,56.9,39.4,29.87,WSW,256,12.0,29.0,52,0.00,,,0.00,Wunderground v.1.15,2013-04-15 23:46:00,
2013-04-15 16:49:00,57.2,39.2,29.86,West,265,21.0,29.0,51,0.00,,,0.00,Wunderground v.1.15,2013-04-15 23:49:00,
2013-04-15 16:50:00,57.1,39.1,29.86,West,268,15.0,18.0,51,0.00,,,0.00,Wunderground v.1.15,2013-04-15 23:50:00,
2013-04-15 16:51:00,57.0,39.0,29.86,West,260,24.0,28.0,51,0.00,,,0.00,Wunderground v.1.15,2013-04-15 23:51:00,
2013-04-15 16:54:00,56.6,38.7,29.86,WSW,256,20.0,28.0,51,0.00,,,0.00,Wunderground v.1.15,2013-04-15 23:54:00,
2013-04-15 16:55:00,56.6,39.2,29.86,WSW,250,16.0,28.0,52,0.00,,,0.00,Wunderground v.1.15,2013-04-15 23:55:00,
2013-04-15 16:56:00,56.7,38.8,29.86,West,267,13.0,28.0,51,0.00,,,0.00,Wunderground v.1.15,2013-04-15 23:56:00,
2013-04-15 17:00:00,56.4,39.0,29.86,West,263,13.0,18.0,52,0.00,,,0.00,Wunderground v.1.15,2013-04-16 00:00:00,
2013-04-15 17:01:00,56.4,39.0,29.86,West,259,15.0,24.0,52,0.00,,,0.00,Wunderground v.1.15,2013-04-16 00:01:00,
2013-04-15 17:02:00,56.5,39.1,29.86,West,278,11.0,24.0,52,0.00,,,0.00,Wunderground v.1.15,2013-04-16 00:02:00,
2013-04-15 17:05:00,56.5,39.1,29.86,SW,230,14.0,25.0,52,0.00,,,0.00,Wunderground v.1.15,2013-04-16 00:05:00,
2013-04-15 17:06:00,56.5,39.1,29.86,West,266,19.0,25.0,52,0.00,,,0.00,Wunderground v.1.15,2013-04-16 00:06:00,
2013-04-15 17:07:00,56.5,39.6,29.86,West,274,13.0,25.0,53,0.00,,,0.00,Wunderground v.1.15,2013-04-16 00:07:00,
2013-04-15 17:10:00,56.5,39.6,29.86,WSW,256,15.0,15.0,53,0.00,,,0.00,Wunderground v.1.15,2013-04-16 00:10:00,
2013-04-15 17:11:00,56.3,39.4,29.86,West,269,23.0,26.0,53,0.00,,,0.00,Wunderground v.1.15,2013-04-16 00:11:00,
2013-04-15 17:12:00,56.0,38.6,29.86,West,269,17.0,26.0,52,0.00,,,0.00,Wunderground v.1.15,2013-04-16 00:12:00,
2013-04-15 17:15:00,55.9,39.5,29.86,WNW,283,23.0,29.0,54,0.00,,,0.00,Wunderground v.1.15,2013-04-16 00:15:00,
2013-04-15 17:16:00,55.8,39.4,29.86,West,268,17.0,29.0,54,0.00,,,0.00,Wunderground v.1.15,2013-04-16 00:16:00,
2013-04-15 17:17:00,55.8,39.4,29.86,West,271,16.0,29.0,54,0.00,,,0.00,Wunderground v.1.15,2013-04-16 00:17:00,
2013-04-15 17:18:00,55.8,39.4,29.86,West,272,10.0,29.0,54,0.00,,,0.00,Wunderground v.1.15,2013-04-16 00:18:00,
2013-04-15 17:20:00,56.3,40.3,29.86,WSW,258,19.0,25.0,55,0.00,,,0.00,Wunderground v.1.15,2013-04-16 00:20:00,
2013-04-15 17:22:00,55.9,39.5,29.86,West,274,19.0,29.0,54,0.00,,,0.00,Wunderground v.1.15,2013-04-16 00:22:00,
2013-04-15 17:23:00,55.8,39.4,29.86,West,266,22.0,29.0,54,0.00,,,0.00,Wunderground v.1.15,2013-04-16 00:23:00,
2013-04-15 17:25:00,55.5,39.1,29.86,WNW,299,19.0,29.0,54,0.00,,,0.00,Wunderground v.1.15,2013-04-16 00:25:00,
2013-04-15 17:27:00,55.5,39.6,29.86,WSW,258,15.0,29.0,55,0.00,,,0.00,Wunderground v.1.15,2013-04-16 00:27:00,
2013-04-15 17:28:00,55.6,39.7,29.86,West,268,23.0,29.0,55,0.00,,,0.00,Wunderground v.1.15,2013-04-16 00:28:00,
2013-04-15 17:30:00,55.4,39.5,29.86,WNW,287,22.0,22.0,55,0.00,,,0.00,Wunderground v.1.15,2013-04-16 00:30:00,
2013-04-15 17:32:00,55.6,40.1,29.86,West,274,17.0,22.0,56,0.00,,,0.00,Wunderground v.1.15,2013-04-16 00:32:00,
2013-04-15 17:33:00,55.7,39.8,29.86,West,262,18.0,22.0,55,0.00,,,0.00,Wunderground v.1.15,2013-04-16 00:33:00,
2013-04-15 17:35:00,56.0,40.1,29.86,West,275,14.0,22.0,55,0.00,,,0.00,Wunderground v.1.15,2013-04-16 00:35:00,
2013-04-15 17:37:00,56.0,39.6,29.86,West,265,13.0,24.0,54,0.00,,,0.00,Wunderground v.1.15,2013-04-16 00:37:00,
2013-04-15 17:38:00,56.0,39.6,29.86,West,268,13.0,24.0,54,0.00,,,0.00,Wunderground v.1.15,2013-04-16 00:38:00,
2013-04-15 17:39:00,56.0,39.6,29.86,West,270,18.0,24.0,54,0.00,,,0.00,Wunderground v.1.15,2013-04-16 00:39:00,
2013-04-15 17:40:00,56.1,39.2,29.86,West,264,8.0,22.0,53,0.00,,,0.00,Wunderground v.1.15,2013-04-16 00:40:00,
2013-04-15 17:43:00,56.0,40.1,29.86,West,265,19.0,23.0,55,0.00,,,0.00,Wunderground v.1.15,2013-04-16 00:43:00,
2013-04-15 17:44:00,55.9,40.0,29.86,West,274,12.0,23.0,55,0.00,,,0.00,Wunderground v.1.15,2013-04-16 00:44:00,
2013-04-15 17:45:00,56.0,39.6,29.86,West,265,18.0,23.0,54,0.00,,,0.00,Wunderground v.1.15,2013-04-16 00:45:00,
2013-04-15 17:48:00,56.1,40.1,29.86,West,262,16.0,23.0,55,0.00,,,0.00,Wunderground v.1.15,2013-04-16 00:48:00,
2013-04-15 17:49:00,56.2,40.2,29.86,WSW,247,17.0,23.0,55,0.00,,,0.00,Wunderground v.1.15,2013-04-16 00:49:00,
2013-04-15 17:51:00,56.2,40.2,29.86,West,272,9.0,15.0,55,0.00,,,0.00,Wunderground v.1.15,2013-04-16 00:51:00,
2013-04-15 17:53:00,56.3,40.3,29.87,WSW,237,6.0,20.0,55,0.00,,,0.00,Wunderground v.1.15,2013-04-16 00:53:00,
2013-04-15 17:54:00,56.4,40.4,29.86,West,274,12.0,20.0,55,0.00,,,0.00,Wunderground v.1.15,2013-04-16 00:54:00,
2013-04-15 17:56:00,56.5,40.5,29.87,WSW,251,12.0,20.0,55,0.00,,,0.00,Wunderground v.1.15,2013-04-16 00:56:00,
2013-04-15 17:58:00,56.4,39.5,29.87,West,264,13.0,20.0,53,0.00,,,0.00,Wunderground v.1.15,2013-04-16 00:58:00,
2013-04-15 17:59:00,56.4,40.0,29.87,WSW,251,12.0,20.0,54,0.00,,,0.00,Wunderground v.1.15,2013-04-16 00:59:00,
2013-04-15 18:00:00,56.4,40.0,29.87,West,279,7.0,12.0,54,0.00,,,0.00,Wunderground v.1.15,2013-04-16 01:00:00,
2013-04-15 18:02:00,56.3,39.9,29.87,WSW,256,9.0,16.0,54,0.00,,,0.00,Wunderground v.1.15,2013-04-16 01:02:00,
2013-04-15 18:04:00,56.4,40.4,29.87,West,266,11.0,16.0,55,0.00,,,0.00,Wunderground v.1.15,2013-04-16 01:04:00,
2013-04-15 18:05:00,56.5,40.0,29.87,West,269,8.0,16.0,54,0.00,,,0.00,Wunderground v.1.15,2013-04-16 01:05:00,
2013-04-15 18:07:00,56.5,39.6,29.87,WNW,291,7.0,16.0,53,0.00,,,0.00,Wunderground v.1.15,2013-04-16 01:07:00,
2013-04-15 18:09:00,56.6,40.1,29.87,WNW,283,6.0,16.0,54,0.00,,,0.00,Wunderground v.1.15,2013-04-16 01:09:00,
2013-04-15 18:10:00,56.7,40.2,29.87,West,262,12.0,16.0,54,0.00,,,0.00,Wunderground v.1.15,2013-04-16 01:10:00,
2013-04-15 18:12:00,56.6,40.1,29.87,WNW,303,8.0,16.0,54,0.00,,,0.00,Wunderground v.1.15,2013-04-16 01:12:00,
2013-04-15 18:14:00,56.5,40.0,29.88,West,271,7.0,16.0,54,0.00,,,0.00,Wunderground v.1.15,2013-04-16 01:14:00,
2013-04-15 18:15:00,56.5,40.0,29.88,West,274,8.0,16.0,54,0.00,,,0.00,Wunderground v.1.15,2013-04-16 01:15:00,
2013-04-15 18:17:00,56.7,40.2,29.88,WSW,253,6.0,16.0,54,0.00,,,0.00,Wunderground v.1.15,2013-04-16 01:17:00,
2013-04-15 18:19:00,56.9,39.9,29.88,WNW,288,8.0,16.0,53,0.00,,,0.00,Wunderground v.1.15,2013-04-16 01:19:00,
2013-04-15 18:20:00,56.9,39.9,29.88,NNW,329,16.0,17.0,53,0.00,,,0.00,Wunderground v.1.15,2013-04-16 01:20:00,
2013-04-15 18:22:00,57.1,34.8,29.88,NW,316,14.0,20.0,43,0.00,,,0.00,Wunderground v.1.15,2013-04-16 01:22:00,
2013-04-15 18:25:00,57.1,33.0,29.88,NW,312,9.0,24.0,40,0.00,,,0.00,Wunderground v.1.15,2013-04-16 01:25:00,
2013-04-15 18:26:00,57.1,33.0,29.88,WNW,293,15.0,24.0,40,0.00,,,0.00,Wunderground v.1.15,2013-04-16 01:26:00,
2013-04-15 18:28:00,57.1,33.0,29.88,WNW,299,6.0,24.0,40,0.00,,,0.00,Wunderground v.1.15,2013-04-16 01:28:00,
2013-04-15 18:30:00,57.2,33.1,29.88,NW,320,17.0,20.0,40,0.00,,,0.00,Wunderground v.1.15,2013-04-16 01:30:00,
2013-04-15 18:31:00,57.2,33.1,29.88,WNW,303,13.0,20.0,40,0.00,,,0.00,Wunderground v.1.15,2013-04-16 01:31:00,
2013-04-15 18:32:00,57.1,33.6,29.88,WNW,293,16.0,20.0,41,0.00,,,0.00,Wunderground v.1.15,2013-04-16 01:32:00,
2013-04-15 18:33:00,57.1,33.6,29.88,WNW,299,14.0,20.0,41,0.00,,,0.00,Wunderground v.1.15,2013-04-16 01:33:00,
2013-04-15 18:35:00,56.9,33.4,29.88,WNW,295,13.0,21.0,41,0.00,,,0.00,Wunderground v.1.15,2013-04-16 01:35:00,
2013-04-15 18:36:00,57.0,33.5,29.88,WNW,299,11.0,21.0,41,0.00,,,0.00,Wunderground v.1.15,2013-04-16 01:36:00,
2013-04-15 18:38:00,56.9,33.4,29.88,NW,305,9.0,21.0,41,0.00,,,0.00,Wunderground v.1.15,2013-04-16 01:38:00,
2013-04-15 18:40:00,56.9,34.6,29.88,WNW,287,11.0,14.0,43,0.00,,,0.00,Wunderground v.1.15,2013-04-16 01:40:00,
2013-04-15 18:41:00,56.9,34.0,29.88,WNW,301,10.0,19.0,42,0.00,,,0.00,Wunderground v.1.15,2013-04-16 01:41:00,
2013-04-15 18:43:00,56.7,33.2,29.88,WNW,293,11.0,20.0,41,0.00,,,0.00,Wunderground v.1.15,2013-04-16 01:43:00,
2013-04-15 18:46:00,56.5,33.7,29.88,West,278,9.0,20.0,42,0.00,,,0.00,Wunderground v.1.15,2013-04-16 01:46:00,
2013-04-15 18:48:00,56.1,38.7,29.88,West,273,7.0,20.0,52,0.00,,,0.00,Wunderground v.1.15,2013-04-16 01:48:00,
2013-04-15 18:49:00,55.9,39.5,29.88,West,265,7.0,20.0,54,0.00,,,0.00,Wunderground v.1.15,2013-04-16 01:49:00,
2013-04-15 18:51:00,55.5,39.6,29.88,West,267,10.0,12.0,55,0.00,,,0.00,Wunderground v.1.15,2013-04-16 01:51:00,
2013-04-15 18:52:00,55.1,39.7,29.88,West,278,9.0,12.0,56,0.00,,,0.00,Wunderground v.1.15,2013-04-16 01:52:00,
2013-04-15 18:53:00,54.5,40.0,29.88,West,261,7.0,13.0,58,0.00,,,0.00,Wunderground v.1.15,2013-04-16 01:53:00,
2013-04-15 18:54:00,54.4,39.9,29.88,West,271,10.0,13.0,58,0.00,,,0.00,Wunderground v.1.15,2013-04-16 01:54:00,
2013-04-15 18:56:00,54.1,39.6,29.88,West,268,7.0,13.0,58,0.00,,,0.00,Wunderground v.1.15,2013-04-16 01:56:00,
2013-04-15 18:58:00,53.7,39.7,29.88,West,266,6.0,15.0,59,0.00,,,0.00,Wunderground v.1.15,2013-04-16 01:58:00,
2013-04-15 18:59:00,53.6,40.0,29.88,West,269,7.0,15.0,60,0.00,,,0.00,Wunderground v.1.15,2013-04-16 01:59:00,
2013-04-15 19:00:00,53.6,40.0,29.88,WNW,293,9.0,9.0,60,0.00,,,0.00,Wunderground v.1.15,2013-04-16 02:00:00,
2013-04-15 19:02:00,53.5,39.9,29.88,West,266,15.0,15.0,60,0.00,,,0.00,Wunderground v.1.15,2013-04-16 02:02:00,
2013-04-15 19:03:00,53.5,39.9,29.88,WSW,258,5.0,15.0,60,0.00,,,0.00,Wunderground v.1.15,2013-04-16 02:03:00,
2013-04-15 19:04:00,53.4,39.9,29.88,West,270,7.0,15.0,60,0.00,,,0.00,Wunderground v.1.15,2013-04-16 02:04:00,
2013-04-15 19:05:00,53.4,39.9,29.88,West,263,6.0,15.0,60,0.00,,,0.00,Wunderground v.1.15,2013-04-16 02:05:00,
2013-04-15 19:07:00,53.3,39.8,29.88,WNW,296,4.0,15.0,60,0.00,,,0.00,Wunderground v.1.15,2013-04-16 02:07:00,
2013-04-15 19:08:00,53.3,39.8,29.89,West,259,11.0,15.0,60,0.00,,,0.00,Wunderground v.1.15,2013-04-16 02:08:00,
2013-04-15 19:09:00,53.2,39.7,29.89,West,273,9.0,15.0,60,0.00,,,0.00,Wunderground v.1.15,2013-04-16 02:09:00,
2013-04-15 19:10:00,53.1,39.6,29.89,West,276,8.0,11.0,60,0.00,,,0.00,Wunderground v.1.15,2013-04-16 02:10:00,
2013-04-15 19:12:00,52.9,39.8,29.89,West,270,9.0,14.0,61,0.00,,,0.00,Wunderground v.1.15,2013-04-16 02:12:00,
2013-04-15 19:13:00,52.9,39.8,29.89,West,274,10.0,14.0,61,0.00,,,0.00,Wunderground v.1.15,2013-04-16 02:13:00,
2013-04-15 19:14:00,52.8,39.7,29.89,WSW,256,7.0,14.0,61,0.00,,,0.00,Wunderground v.1.15,2013-04-16 02:14:00,
2013-04-15 19:15:00,52.7,39.6,29.89,WSW,245,15.0,15.0,61,0.00,,,0.00,Wunderground v.1.15,2013-04-16 02:15:00,
2013-04-15 19:17:00,52.5,39.0,29.89,West,281,3.0,15.0,60,0.00,,,0.00,Wunderground v.1.15,2013-04-16 02:17:00,
2013-04-15 19:18:00,52.5,39.0,29.89,West,270,6.0,15.0,60,0.00,,,0.00,Wunderground v.1.15,2013-04-16 02:18:00,
2013-04-15 19:20:00,52.5,39.0,29.89,West,266,5.0,8.0,60,0.00,,,0.00,Wunderground v.1.15,2013-04-16 02:20:00,
2013-04-15 19:21:00,52.6,38.7,29.89,WNW,294,4.0,9.0,59,0.00,,,0.00,Wunderground v.1.15,2013-04-16 02:21:00,
2013-04-15 19:23:00,52.6,38.7,29.89,West,276,3.0,9.0,59,0.00,,,0.00,Wunderground v.1.15,2013-04-16 02:23:00,
2013-04-15 19:25:00,52.6,38.7,29.89,West,262,6.0,12.0,59,0.00,,,0.00,Wunderground v.1.15,2013-04-16 02:25:00,
2013-04-15 19:26:00,52.5,39.0,29.89,WSW,247,7.0,12.0,60,0.00,,,0.00,Wunderground v.1.15,2013-04-16 02:26:00,
2013-04-15 19:28:00,52.3,38.8,29.89,West,276,6.0,12.0,60,0.00,,,0.00,Wunderground v.1.15,2013-04-16 02:28:00,
2013-04-15 19:29:00,52.2,39.1,29.89,West,259,6.0,12.0,61,0.00,,,0.00,Wunderground v.1.15,2013-04-16 02:29:00,
2013-04-15 19:30:00,52.1,39.5,29.89,WSW,242,13.0,13.0,62,0.00,,,0.00,Wunderground v.1.15,2013-04-16 02:30:00,
2013-04-15 19:32:00,51.7,39.5,29.89,West,260,5.0,15.0,63,0.00,,,0.00,Wunderground v.1.15,2013-04-16 02:32:00,
2013-04-15 19:33:00,51.5,39.3,29.89,WSW,252,10.0,15.0,63,0.00,,,0.00,Wunderground v.1.15,2013-04-16 02:33:00,
2013-04-15 19:34:00,51.3,39.1,29.89,WSW,251,7.0,15.0,63,0.00,,,0.00,Wunderground v.1.15,2013-04-16 02:34:00,
2013-04-15 19:35:00,51.3,39.1,29.89,West,260,10.0,15.0,63,0.00,,,0.00,Wunderground v.1.15,2013-04-16 02:35:00,
2013-04-15 19:38:00,51.3,39.1,29.89,West,259,8.0,15.0,63,0.00,,,0.00,Wunderground v.1.15,2013-04-16 02:38:00,
2013-04-15 19:39:00,51.2,39.0,29.89,WSW,243,9.0,15.0,63,0.00,,,0.00,Wunderground v.1.15,2013-04-16 02:39:00,
2013-04-15 19:40:00,51.2,39.0,29.89,WSW,244,8.0,9.0,63,0.00,,,0.00,Wunderground v.1.15,2013-04-16 02:40:00,
2013-04-15 19:43:00,51.1,38.5,29.90,West,262,9.0,12.0,62,0.00,,,0.00,Wunderground v.1.15,2013-04-16 02:43:00,
2013-04-15 19:44:00,51.2,38.6,29.90,West,262,6.0,12.0,62,0.00,,,0.00,Wunderground v.1.15,2013-04-16 02:44:00,
2013-04-15 19:45:00,51.1,38.5,29.90,West,272,4.0,12.0,62,0.00,,,0.00,Wunderground v.1.15,2013-04-16 02:45:00,
2013-04-15 19:48:00,51.2,37.8,29.90,WSW,255,9.0,12.0,60,0.00,,,0.00,Wunderground v.1.15,2013-04-16 02:48:00,
2013-04-15 19:49:00,51.3,37.9,29.90,West,262,10.0,12.0,60,0.00,,,0.00,Wunderground v.1.15,2013-04-16 02:49:00,
2013-04-15 19:50:00,51.4,38.0,29.90,WSW,258,5.0,8.0,60,0.00,,,0.00,Wunderground v.1.15,2013-04-16 02:50:00,
2013-04-15 19:53:00,51.5,38.1,29.90,WSW,253,8.0,10.0,60,0.00,,,0.00,Wunderground v.1.15,2013-04-16 02:53:00,
2013-04-15 19:54:00,51.5,38.1,29.90,WSW,252,7.0,10.0,60,0.00,,,0.00,Wunderground v.1.15,2013-04-16 02:54:00,
2013-04-15 19:56:00,51.4,38.0,29.90,WSW,245,6.0,10.0,60,0.00,,,0.00,Wunderground v.1.15,2013-04-16 02:56:00,
2013-04-15 19:58:00,51.1,38.5,29.90,WSW,239,7.0,10.0,62,0.00,,,0.00,Wunderground v.1.15,2013-04-16 02:58:00,
2013-04-15 19:59:00,51.0,38.4,29.90,WSW,245,9.0,10.0,62,0.00,,,0.00,Wunderground v.1.15,2013-04-16 02:59:00,
2013-04-15 20:00:00,50.9,38.3,29.90,SW,228,8.0,8.0,62,0.00,,,0.00,Wunderground v.1.15,2013-04-16 03:00:00,
2013-04-15 20:01:00,50.8,38.7,29.90,SW,233,6.0,8.0,63,0.00,,,0.00,Wunderground v.1.15,2013-04-16 03:01:00,
2013-04-15 20:03:00,50.4,39.1,29.90,SW,227,8.0,8.0,65,0.00,,,0.00,Wunderground v.1.15,2013-04-16 03:03:00,
2013-04-15 20:04:00,50.3,39.0,29.90,SW,232,8.0,8.0,65,0.00,,,0.00,Wunderground v.1.15,2013-04-16 03:04:00,
2013-04-15 20:05:00,50.2,38.9,29.90,SW,233,7.0,9.0,65,0.00,,,0.00,Wunderground v.1.15,2013-04-16 03:05:00,
2013-04-15 20:06:00,50.1,38.8,29.90,SW,228,7.0,9.0,65,0.00,,,0.00,Wunderground v.1.15,2013-04-16 03:06:00,
2013-04-15 20:08:00,49.9,38.6,29.90,SW,233,7.0,10.0,65,0.00,,,0.00,Wunderground v.1.15,2013-04-16 03:08:00,
2013-04-15 20:09:00,49.9,38.6,29.90,SW,233,5.0,10.0,65,0.00,,,0.00,Wunderground v.1.15,2013-04-16 03:09:00,
2013-04-15 20:10:00,49.8,38.9,29.90,SW,226,8.0,10.0,66,0.00,,,0.00,Wunderground v.1.15,2013-04-16 03:10:00,
2013-04-15 20:11:00,49.8,38.9,29.91,SW,224,8.0,10.0,66,0.00,,,0.00,Wunderground v.1.15,2013-04-16 03:11:00,
2013-04-15 20:14:00,49.3,39.2,29.91,SW,235,7.0,12.0,68,0.00,,,0.00,Wunderground v.1.15,2013-04-16 03:14:00,
2013-04-15 20:16:00,49.0,38.9,29.91,SW,233,8.0,12.0,68,0.00,,,0.00,Wunderground v.1.15,2013-04-16 03:16:00,
2013-04-15 20:19:00,48.8,39.1,29.90,SW,226,8.0,12.0,69,0.00,,,0.00,Wunderground v.1.15,2013-04-16 03:19:00,
2013-04-15 20:21:00,48.8,39.1,29.91,SW,231,7.0,10.0,69,0.00,,,0.00,Wunderground v.1.15,2013-04-16 03:21:00,
2013-04-15 20:24:00,48.9,38.8,29.91,SW,231,8.0,10.0,68,0.00,,,0.00,Wunderground v.1.15,2013-04-16 03:24:00,
2013-04-15 20:25:00,49.0,38.5,29.91,SW,236,6.0,10.0,67,0.00,,,0.00,Wunderground v.1.15,2013-04-16 03:25:00,
2013-04-15 20:26:00,49.2,38.7,29.91,WSW,238,7.0,10.0,67,0.00,,,0.00,Wunderground v.1.15,2013-04-16 03:26:00,
2013-04-15 20:29:00,49.3,38.8,29.91,SW,233,9.0,10.0,67,0.00,,,0.00,Wunderground v.1.15,2013-04-16 03:29:00,
2013-04-15 20:30:00,49.2,38.7,29.91,WSW,238,7.0,7.0,67,0.00,,,0.00,Wunderground v.1.15,2013-04-16 03:30:00,
2013-04-15 20:31:00,49.2,38.7,29.91,WSW,239,8.0,10.0,67,0.00,,,0.00,Wunderground v.1.15,2013-04-16 03:31:00,
2013-04-15 20:34:00,49.4,38.1,29.92,SW,233,7.0,10.0,65,0.00,,,0.00,Wunderground v.1.15,2013-04-16 03:34:00,
2013-04-15 20:35:00,49.5,37.8,29.92,WSW,242,7.0,10.0,64,0.00,,,0.00,Wunderground v.1.15,2013-04-16 03:35:00,
2013-04-15 20:37:00,49.7,38.0,29.92,SW,235,6.0,10.0,64,0.00,,,0.00,Wunderground v.1.15,2013-04-16 03:37:00,
2013-04-15 20:39:00,49.5,38.2,29.92,WSW,239,7.0,10.0,65,0.00,,,0.00,Wunderground v.1.15,2013-04-16 03:39:00,
2013-04-15 20:40:00,49.4,38.1,29.92,SW,230,10.0,10.0,65,0.00,,,0.00,Wunderground v.1.15,2013-04-16 03:40:00,
2013-04-15 20:42:00,49.2,38.3,29.92,SW,231,8.0,11.0,66,0.00,,,0.00,Wunderground v.1.15,2013-04-16 03:42:00,
2013-04-15 20:45:00,49.2,38.3,29.92,WSW,240,5.0,11.0,66,0.00,,,0.00,Wunderground v.1.15,2013-04-16 03:45:00,
2013-04-15 20:47:00,49.3,38.0,29.92,SW,236,8.0,11.0,65,0.00,,,0.00,Wunderground v.1.15,2013-04-16 03:47:00,
2013-04-15 20:50:00,49.4,38.1,29.93,WSW,247,7.0,8.0,65,0.00,,,0.00,Wunderground v.1.15,2013-04-16 03:50:00,
2013-04-15 20:51:00,49.4,38.1,29.92,WSW,249,6.0,8.0,65,0.00,,,0.00,Wunderground v.1.15,2013-04-16 03:51:00,
2013-04-15 20:52:00,49.4,37.7,29.92,WSW,245,4.0,8.0,64,0.00,,,0.00,Wunderground v.1.15,2013-04-16 03:52:00,
2013-04-15 20:53:00,49.4,37.7,29.93,WSW,245,4.0,8.0,64,0.00,,,0.00,Wunderground v.1.15,2013-04-16 03:53:00,
2013-04-15 20:55:00,49.5,37.8,29.93,WSW,249,7.0,10.0,64,0.00,,,0.00,Wunderground v.1.15,2013-04-16 03:55:00,
2013-04-15 20:56:00,49.5,37.8,29.93,WSW,245,6.0,10.0,64,0.00,,,0.00,Wunderground v.1.15,2013-04-16 03:56:00,
2013-04-15 20:57:00,49.5,37.8,29.93,WSW,245,6.0,10.0,64,0.00,,,0.00,Wunderground v.1.15,2013-04-16 03:57:00,
2013-04-15 20:58:00,49.5,37.8,29.93,WSW,245,7.0,10.0,64,0.00,,,0.00,Wunderground v.1.15,2013-04-16 03:58:00,
2013-04-15 21:00:00,49.4,37.7,29.93,WSW,241,7.0,7.0,64,0.00,,,0.00,Wunderground v.1.15,2013-04-16 04:00:00,
2013-04-15 21:05:00,49.2,37.9,29.93,West,259,5.0,8.0,65,0.00,,,0.00,Wunderground v.1.15,2013-04-16 04:05:00,
2013-04-15 21:06:00,49.1,37.8,29.93,WSW,256,6.0,8.0,65,0.00,,,0.00,Wunderground v.1.15,2013-04-16 04:06:00,
2013-04-15 21:10:00,49.0,37.7,29.94,West,264,3.0,6.0,65,0.00,,,0.00,Wunderground v.1.15,2013-04-16 04:10:00,
2013-04-15 21:11:00,49.0,37.7,29.94,West,266,3.0,6.0,65,0.00,,,0.00,Wunderground v.1.15,2013-04-16 04:11:00,
2013-04-15 21:12:00,49.0,37.7,29.94,West,266,2.0,6.0,65,0.00,,,0.00,Wunderground v.1.15,2013-04-16 04:12:00,
2013-04-15 21:15:00,48.8,37.9,29.94,West,268,3.0,7.0,66,0.00,,,0.00,Wunderground v.1.15,2013-04-16 04:15:00,
2013-04-15 21:17:00,48.7,37.8,29.94,WSW,255,9.0,9.0,66,0.00,,,0.00,Wunderground v.1.15,2013-04-16 04:17:00,
2013-04-15 21:20:00,48.7,37.8,29.94,West,273,7.0,7.0,66,0.00,,,0.00,Wunderground v.1.15,2013-04-16 04:20:00,
2013-04-15 21:22:00,49.0,37.3,29.94,West,274,5.0,10.0,64,0.00,,,0.00,Wunderground v.1.15,2013-04-16 04:22:00,
2013-04-15 21:25:00,49.2,37.9,29.94,WNW,287,3.0,10.0,65,0.00,,,0.00,Wunderground v.1.15,2013-04-16 04:25:00,
2013-04-15 21:27:00,49.2,37.5,29.94,WNW,288,5.0,10.0,64,0.00,,,0.00,Wunderground v.1.15,2013-04-16 04:27:00,
2013-04-15 21:30:00,49.4,37.7,29.94,WNW,289,2.0,6.0,64,0.00,,,0.00,Wunderground v.1.15,2013-04-16 04:30:00,
2013-04-15 21:31:00,49.4,37.3,29.94,WNW,289,4.0,6.0,63,0.00,,,0.00,Wunderground v.1.15,2013-04-16 04:31:00,
2013-04-15 21:32:00,49.5,37.4,29.94,WNW,289,10.0,10.0,63,0.00,,,0.00,Wunderground v.1.15,2013-04-16 04:32:00,
2013-04-15 21:35:00,49.7,37.2,29.94,WNW,299,6.0,10.0,62,0.00,,,0.00,Wunderground v.1.15,2013-04-16 04:35:00,
2013-04-15 21:36:00,49.7,37.2,29.94,WNW,297,5.0,10.0,62,0.00,,,0.00,Wunderground v.1.15,2013-04-16 04:36:00,
2013-04-15 21:37:00,49.9,37.0,29.94,WNW,287,6.0,10.0,61,0.00,,,0.00,Wunderground v.1.15,2013-04-16 04:37:00,
2013-04-15 21:40:00,50.2,37.3,29.94,WNW,292,1.0,7.0,61,0.00,,,0.00,Wunderground v.1.15,2013-04-16 04:40:00,
2013-04-15 21:41:00,50.2,37.3,29.94,WNW,292,2.0,7.0,61,0.00,,,0.00,Wunderground v.1.15,2013-04-16 04:41:00,
2013-04-15 21:43:00,50.3,37.4,29.94,WNW,288,1.0,7.0,61,0.00,,,0.00,Wunderground v.1.15,2013-04-16 04:43:00,
2013-04-15 21:45:00,50.3,37.4,29.95,West,278,4.0,7.0,61,0.00,,,0.00,Wunderground v.1.15,2013-04-16 04:45:00,
2013-04-15 21:46:00,50.3,37.4,29.95,West,278,3.0,7.0,61,0.00,,,0.00,Wunderground v.1.15,2013-04-16 04:46:00,
2013-04-15 21:47:00,50.3,37.4,29.95,WNW,290,3.0,7.0,61,0.00,,,0.00,Wunderground v.1.15,2013-04-16 04:47:00,
2013-04-15 21:48:00,50.3,36.9,29.95,WNW,288,6.0,7.0,60,0.00,,,0.00,Wunderground v.1.15,2013-04-16 04:48:00,
2013-04-15 21:51:00,50.5,37.1,29.95,NW,308,6.0,6.0,60,0.00,,,0.00,Wunderground v.1.15,2013-04-16 04:51:00,
2013-04-15 21:52:00,50.5,37.1,29.95,WNW,293,8.0,8.0,60,0.00,,,0.00,Wunderground v.1.15,2013-04-16 04:52:00,
2013-04-15 21:53:00,50.5,37.1,29.95,WNW,296,3.0,8.0,60,0.00,,,0.00,Wunderground v.1.15,2013-04-16 04:53:00,
2013-04-15 21:56:00,50.6,37.2,29.96,WNW,300,6.0,8.0,60,0.00,,,0.00,Wunderground v.1.15,2013-04-16 04:56:00,
2013-04-15 21:57:00,50.6,37.2,29.96,WNW,299,9.0,9.0,60,0.00,,,0.00,Wunderground v.1.15,2013-04-16 04:57:00,
2013-04-15 21:58:00,50.6,36.8,29.96,WNW,298,3.0,9.0,59,0.00,,,0.00,Wunderground v.1.15,2013-04-16 04:58:00,
2013-04-15 22:01:00,50.6,37.2,29.96,WNW,291,6.0,8.0,60,0.00,,,0.00,Wunderground v.1.15,2013-04-16 05:01:00,
2013-04-15 22:02:00,50.6,37.2,29.96,WNW,299,9.0,9.0,60,0.00,,,0.00,Wunderground v.1.15,2013-04-16 05:02:00,
2013-04-15 22:03:00,50.6,36.8,29.96,WNW,302,7.0,11.0,59,0.00,,,0.00,Wunderground v.1.15,2013-04-16 05:03:00,
2013-04-15 22:06:00,50.7,36.9,29.96,NNW,332,5.0,11.0,59,0.00,,,0.00,Wunderground v.1.15,2013-04-16 05:06:00,
2013-04-15 22:07:00,50.6,36.8,29.96,NW,310,5.0,11.0,59,0.00,,,0.00,Wunderground v.1.15,2013-04-16 05:07:00,
2013-04-15 22:08:00,50.6,36.8,29.96,NW,310,5.0,11.0,59,0.00,,,0.00,Wunderground v.1.15,2013-04-16 05:08:00,
2013-04-15 22:12:00,50.6,36.8,29.96,NW,324,2.0,9.0,59,0.00,,,0.00,Wunderground v.1.15,2013-04-16 05:12:00,
2013-04-15 22:13:00,50.6,36.8,29.96,WNW,300,5.0,9.0,59,0.00,,,0.00,Wunderground v.1.15,2013-04-16 05:13:00,
2013-04-15 22:14:00,50.6,36.8,29.96,WNW,288,7.0,11.0,59,0.00,,,0.00,Wunderground v.1.15,2013-04-16 05:14:00,
2013-04-15 22:17:00,50.5,36.7,29.96,NW,308,4.0,11.0,59,0.00,,,0.00,Wunderground v.1.15,2013-04-16 05:17:00,
2013-04-15 22:18:00,50.5,36.7,29.96,NW,308,2.0,11.0,59,0.00,,,0.00,Wunderground v.1.15,2013-04-16 05:18:00,
2013-04-15 22:19:00,50.5,36.7,29.96,WNW,300,7.0,11.0,59,0.00,,,0.00,Wunderground v.1.15,2013-04-16 05:19:00,
2013-04-15 22:20:00,50.5,36.7,29.96,WNW,303,7.0,7.0,59,0.00,,,0.00,Wunderground v.1.15,2013-04-16 05:20:00,
2013-04-15 22:23:00,50.4,36.6,29.97,WNW,297,7.0,9.0,59,0.00,,,0.00,Wunderground v.1.15,2013-04-16 05:23:00,
2013-04-15 22:24:00,50.4,36.6,29.97,WNW,297,5.0,9.0,59,0.00,,,0.00,Wunderground v.1.15,2013-04-16 05:24:00,
2013-04-15 22:25:00,50.4,36.6,29.97,West,280,2.0,9.0,59,0.00,,,0.00,Wunderground v.1.15,2013-04-16 05:25:00,
2013-04-15 22:28:00,50.3,36.9,29.97,West,261,2.0,9.0,60,0.00,,,0.00,Wunderground v.1.15,2013-04-16 05:28:00,
2013-04-15 22:29:00,50.2,36.8,29.97,West,269,5.0,9.0,60,0.00,,,0.00,Wunderground v.1.15,2013-04-16 05:29:00,
2013-04-15 22:30:00,50.0,37.1,29.97,West,273,3.0,5.0,61,0.00,,,0.00,Wunderground v.1.15,2013-04-16 05:30:00,
2013-04-15 22:33:00,49.4,37.3,29.97,West,265,4.0,6.0,63,0.00,,,0.00,Wunderground v.1.15,2013-04-16 05:33:00,
2013-04-15 22:34:00,49.1,37.4,29.97,West,263,5.0,6.0,64,0.00,,,0.00,Wunderground v.1.15,2013-04-16 05:34:00,
2013-04-15 22:35:00,48.9,37.6,29.97,West,262,4.0,7.0,65,0.00,,,0.00,Wunderground v.1.15,2013-04-16 05:35:00,
2013-04-15 22:38:00,48.4,37.6,29.97,WSW,244,6.0,8.0,66,0.00,,,0.00,Wunderground v.1.15,2013-04-16 05:38:00,
2013-04-15 22:39:00,48.3,37.1,29.97,WSW,253,3.0,8.0,65,0.00,,,0.00,Wunderground v.1.15,2013-04-16 05:39:00,
2013-04-15 22:40:00,48.3,37.5,29.97,WSW,253,4.0,5.0,66,0.00,,,0.00,Wunderground v.1.15,2013-04-16 05:40:00,
2013-04-15 22:41:00,48.3,37.5,29.97,WSW,253,3.0,7.0,66,0.00,,,0.00,Wunderground v.1.15,2013-04-16 05:41:00,
2013-04-15 22:43:00,48.3,37.5,29.97,WSW,250,3.0,7.0,66,0.00,,,0.00,Wunderground v.1.15,2013-04-16 05:43:00,
2013-04-15 22:44:00,48.3,37.1,29.97,WSW,250,3.0,7.0,65,0.00,,,0.00,Wunderground v.1.15,2013-04-16 05:44:00,
2013-04-15 22:45:00,48.3,37.1,29.97,WSW,251,2.0,7.0,65,0.00,,,0.00,Wunderground v.1.15,2013-04-16 05:45:00,
2013-04-15 22:46:00,48.3,37.1,29.97,WSW,251,3.0,7.0,65,0.00,,,0.00,Wunderground v.1.15,2013-04-16 05:46:00,
2013-04-15 22:48:00,48.3,37.1,29.97,WSW,250,3.0,7.0,65,0.00,,,0.00,Wunderground v.1.15,2013-04-16 05:48:00,
2013-04-15 22:49:00,48.4,37.2,29.97,WSW,253,5.0,8.0,65,0.00,,,0.00,Wunderground v.1.15,2013-04-16 05:49:00,
2013-04-15 22:50:00,48.4,37.2,29.97,WSW,254,2.0,6.0,65,0.00,,,0.00,Wunderground v.1.15,2013-04-16 05:50:00,
2013-04-15 22:51:00,48.3,37.1,29.97,WSW,254,3.0,6.0,65,0.00,,,0.00,Wunderground v.1.15,2013-04-16 05:51:00,
2013-04-15 22:53:00,48.2,37.0,29.97,WSW,254,2.0,6.0,65,0.00,,,0.00,Wunderground v.1.15,2013-04-16 05:53:00,
2013-04-15 22:54:00,48.2,37.0,29.97,WSW,254,2.0,6.0,65,0.00,,,0.00,Wunderground v.1.15,2013-04-16 05:54:00,
2013-04-15 22:55:00,48.2,37.0,29.97,WSW,254,3.0,6.0,65,0.00,,,0.00,Wunderground v.1.15,2013-04-16 05:55:00,
2013-04-15 22:56:00,48.1,36.9,29.97,WSW,254,2.0,6.0,65,0.00,,,0.00,Wunderground v.1.15,2013-04-16 05:56:00,
2013-04-15 22:59:00,47.9,37.1,29.97,WSW,254,2.0,6.0,66,0.00,,,0.00,Wunderground v.1.15,2013-04-16 05:59:00,
2013-04-15 23:00:00,47.9,37.1,29.97,WSW,255,2.0,2.0,66,0.00,,,0.00,Wunderground v.1.15,2013-04-16 06:00:00,
2013-04-15 23:01:00,47.8,37.0,29.97,WSW,255,2.0,3.0,66,0.00,,,0.00,Wunderground v.1.15,2013-04-16 06:01:00,
2013-04-15 23:04:00,47.6,36.8,29.98,WSW,255,1.0,3.0,66,0.00,,,0.00,Wunderground v.1.15,2013-04-16 06:04:00,
2013-04-15 23:05:00,47.5,36.7,29.97,WSW,255,0.0,3.0,66,0.00,,,0.00,Wunderground v.1.15,2013-04-16 06:05:00,
2013-04-15 23:07:00,47.4,37.0,29.97,WSW,255,1.0,3.0,67,0.00,,,0.00,Wunderground v.1.15,2013-04-16 06:07:00,
2013-04-15 23:09:00,47.3,36.9,29.97,WSW,257,3.0,4.0,67,0.00,,,0.00,Wunderground v.1.15,2013-04-16 06:09:00,
2013-04-15 23:10:00,47.3,36.9,29.97,WSW,258,3.0,3.0,67,0.00,,,0.00,Wunderground v.1.15,2013-04-16 06:10:00,
2013-04-15 23:12:00,47.2,36.8,29.97,West,264,5.0,5.0,67,0.00,,,0.00,Wunderground v.1.15,2013-04-16 06:12:00,
2013-04-15 23:15:00,47.4,36.6,29.97,NW,305,2.0,7.0,66,0.00,,,0.00,Wunderground v.1.15,2013-04-16 06:15:00,
2013-04-15 23:18:00,47.6,36.4,29.97,NW,305,2.0,7.0,65,0.00,,,0.00,Wunderground v.1.15,2013-04-16 06:18:00,
2013-04-15 23:20:00,47.6,36.4,29.97,NW,305,3.0,3.0,65,0.00,,,0.00,Wunderground v.1.15,2013-04-16 06:20:00,
2013-04-15 23:22:00,47.5,36.3,29.97,NW,305,1.0,4.0,65,0.00,,,0.00,Wunderground v.1.15,2013-04-16 06:22:00,
2013-04-15 23:23:00,47.5,36.3,29.97,NW,305,2.0,4.0,65,0.00,,,0.00,Wunderground v.1.15,2013-04-16 06:23:00,
2013-04-15 23:25:00,47.5,36.3,29.97,NW,305,1.0,4.0,65,0.00,,,0.00,Wunderground v.1.15,2013-04-16 06:25:00,
2013-04-15 23:27:00,47.4,36.2,29.97,WNW,300,3.0,8.0,65,0.00,,,0.00,Wunderground v.1.15,2013-04-16 06:27:00,
2013-04-15 23:28:00,47.4,36.2,29.97,WNW,300,0.0,8.0,65,0.00,,,0.00,Wunderground v.1.15,2013-04-16 06:28:00,
2013-04-15 23:30:00,47.5,35.9,29.97,WNW,303,2.0,5.0,64,0.00,,,0.00,Wunderground v.1.15,2013-04-16 06:30:00,
2013-04-15 23:31:00,47.6,36.0,29.97,NW,305,6.0,8.0,64,0.00,,,0.00,Wunderground v.1.15,2013-04-16 06:31:00,
2013-04-15 23:32:00,47.7,36.1,29.97,NW,313,6.0,9.0,64,0.00,,,0.00,Wunderground v.1.15,2013-04-16 06:32:00,
2013-04-15 23:33:00,47.8,36.2,29.97,NW,314,5.0,9.0,64,0.00,,,0.00,Wunderground v.1.15,2013-04-16 06:33:00,
2013-04-15 23:35:00,47.9,36.3,29.97,NW,310,5.0,9.0,64,0.00,,,0.00,Wunderground v.1.15,2013-04-16 06:35:00,
2013-04-15 23:36:00,48.0,36.0,29.97,NW,317,4.0,9.0,63,0.00,,,0.00,Wunderground v.1.15,2013-04-16 06:36:00,
2013-04-15 23:38:00,48.1,36.1,29.97,NW,316,3.0,9.0,63,0.00,,,0.00,Wunderground v.1.15,2013-04-16 06:38:00,
2013-04-15 23:40:00,48.1,36.1,29.98,WNW,302,5.0,10.0,63,0.00,,,0.00,Wunderground v.1.15,2013-04-16 06:40:00,
2013-04-15 23:41:00,48.1,36.1,29.98,NW,318,4.0,10.0,63,0.00,,,0.00,Wunderground v.1.15,2013-04-16 06:41:00,
2013-04-15 23:42:00,48.2,35.8,29.98,NW,309,2.0,10.0,62,0.00,,,0.00,Wunderground v.1.15,2013-04-16 06:42:00,
2013-04-15 23:43:00,48.2,35.8,29.98,NW,309,2.0,10.0,62,0.00,,,0.00,Wunderground v.1.15,2013-04-16 06:43:00,
2013-04-15 23:44:00,48.2,35.8,29.98,NW,309,2.0,10.0,62,0.00,,,0.00,Wunderground v.1.15,2013-04-16 06:44:00,
2013-04-15 23:45:00,48.2,35.8,29.98,NW,309,3.0,10.0,62,0.00,,,0.00,Wunderground v.1.15,2013-04-16 06:45:00,
2013-04-15 23:46:00,48.1,36.1,29.98,WNW,299,4.0,10.0,63,0.00,,,0.00,Wunderground v.1.15,2013-04-16 06:46:00,
2013-04-15 23:47:00,47.9,36.3,29.98,WNW,298,0.0,10.0,64,0.00,,,0.00,Wunderground v.1.15,2013-04-16 06:47:00,
2013-04-15 23:48:00,47.7,36.1,29.98,WNW,294,6.0,10.0,64,0.00,,,0.00,Wunderground v.1.15,2013-04-16 06:48:00,
2013-04-15 23:49:00,47.6,36.0,29.98,WNW,283,5.0,10.0,64,0.00,,,0.00,Wunderground v.1.15,2013-04-16 06:49:00,
2013-04-15 23:50:00,47.2,36.0,29.98,West,273,4.0,5.0,65,0.00,,,0.00,Wunderground v.1.15,2013-04-16 06:50:00,
2013-04-15 23:51:00,47.0,36.2,29.98,West,273,5.0,5.0,66,0.00,,,0.00,Wunderground v.1.15,2013-04-16 06:51:00,
2013-04-15 23:52:00,46.9,36.1,29.98,West,276,7.0,7.0,66,0.00,,,0.00,Wunderground v.1.15,2013-04-16 06:52:00,
2013-04-15 23:53:00,46.8,36.0,29.98,West,276,7.0,7.0,66,0.00,,,0.00,Wunderground v.1.15,2013-04-16 06:53:00,
2013-04-15 23:54:00,46.8,36.0,29.98,West,273,6.0,8.0,66,0.00,,,0.00,Wunderground v.1.15,2013-04-16 06:54:00,
2013-04-15 23:55:00,46.8,36.0,29.98,West,278,6.0,8.0,66,0.00,,,0.00,Wunderground v.1.15,2013-04-16 06:55:00,
2013-04-15 23:57:00,46.7,35.9,29.98,West,278,2.0,8.0,66,0.00,,,0.00,Wunderground v.1.15,2013-04-16 06:57:00,
2013-04-15 23:58:00,46.7,35.9,29.98,West,278,2.0,8.0,66,0.00,,,0.00,Wunderground v.1.15,2013-04-16 06:58:00,
2013-04-15 23:59:00,46.7,35.9,29.98,WNW,283,4.0,8.0,66,0.00,,,0.00,Wunderground v.1.15,2013-04-16 06:59:00,